Wetterdaten: Sonntag, 30.06.2019
Datum Zeit Temp. Aussen Temp. o. S. +5cm Feuchte Auss Luftdruck Regen Sonnenschein Regendauer Solar Windben Empfang
30.06.2019 00:00 26,4 C 25,0 C 24,4 C 48 % 1013,7 hPa 0,0 l/m 0 min 0 min 0 W/m 6,4 km/h (2 Bft) 97,87 %
30.06.2019 00:02 26,4 C 25,0 C 24,4 C 48 % 1013,6 hPa 0,0 l/m 0 min 0 min 0 W/m 6,4 km/h (2 Bft) 94,87 %
30.06.2019 00:04 26,4 C 25,0 C 24,4 C 48 % 1013,7 hPa 0,0 l/m 0 min 0 min 0 W/m 6,4 km/h (2 Bft) 95,74 %
30.06.2019 00:08 26,4 C 24,4 C 24,4 C 48 % 1013,7 hPa 0,0 l/m 0 min 0 min 0 W/m 9,7 km/h (2 Bft) 97,85 %
30.06.2019 00:10 26,3 C 24,4 C 23,9 C 48 % 1013,6 hPa 0,0 l/m 0 min 0 min 0 W/m 3,2 km/h (1 Bft) 97,87 %
30.06.2019 00:12 26,3 C 24,4 C 23,9 C 48 % 1013,6 hPa 0,0 l/m 0 min 0 min 0 W/m 6,4 km/h (2 Bft) 97,87 %
30.06.2019 00:14 26,3 C 24,4 C 23,9 C 48 % 1013,6 hPa 0,0 l/m 0 min 0 min 0 W/m 9,7 km/h (2 Bft) 97,87 %
30.06.2019 00:16 26,2 C 24,4 C 23,9 C 48 % 1013,6 hPa 0,0 l/m 0 min 0 min 0 W/m 9,7 km/h (2 Bft) 97,87 %
30.06.2019 00:18 26,2 C 24,4 C 23,9 C 49 % 1013,6 hPa 0,0 l/m 0 min 0 min 0 W/m 6,4 km/h (2 Bft) 97,83 %
30.06.2019 00:20 26,2 C 24,4 C 23,9 C 49 % 1013,6 hPa 0,0 l/m 0 min 0 min 0 W/m 6,4 km/h (2 Bft) 97,87 %
30.06.2019 00:22 26,1 C 24,4 C 23,9 C 49 % 1013,6 hPa 0,0 l/m 0 min 0 min 0 W/m 9,7 km/h (2 Bft) 100,00 %
30.06.2019 00:24 26,1 C 23,9 C 23,9 C 49 % 1013,6 hPa 0,0 l/m 0 min 0 min 0 W/m 6,4 km/h (2 Bft) 100,00 %
30.06.2019 00:26 26,0 C 23,9 C 23,9 C 49 % 1013,6 hPa 0,0 l/m 0 min 0 min 0 W/m 6,4 km/h (2 Bft) 97,87 %
30.06.2019 00:28 25,9 C 23,9 C 23,9 C 49 % 1013,6 hPa 0,0 l/m 0 min 0 min 0 W/m 6,4 km/h (2 Bft) 95,74 %
30.06.2019 00:30 25,9 C 23,9 C 23,3 C 49 % 1013,6 hPa 0,0 l/m 0 min 0 min 0 W/m 6,4 km/h (2 Bft) 97,83 %
30.06.2019 00:32 25,8 C 23,9 C 23,3 C 50 % 1013,6 hPa 0,0 l/m 0 min 0 min 0 W/m 6,4 km/h (2 Bft) 100,00 %
30.06.2019 00:34 25,8 C 23,9 C 23,3 C 50 % 1013,6 hPa 0,0 l/m 0 min 0 min 0 W/m 6,4 km/h (2 Bft) 100,00 %
30.06.2019 00:36 25,7 C 23,9 C 23,3 C 50 % 1013,6 hPa 0,0 l/m 0 min 0 min 0 W/m 6,4 km/h (2 Bft) 97,87 %
30.06.2019 00:38 25,7 C 23,3 C 23,3 C 50 % 1013,6 hPa 0,0 l/m 0 min 0 min 0 W/m 6,4 km/h (2 Bft) 95,74 %
30.06.2019 00:40 25,6 C 23,3 C 23,3 C 50 % 1013,5 hPa 0,0 l/m 0 min 0 min 0 W/m 6,4 km/h (2 Bft) 97,87 %
30.06.2019 00:42 25,6 C 23,3 C 23,3 C 50 % 1013,5 hPa 0,0 l/m 0 min 0 min 0 W/m 9,7 km/h (2 Bft) 95,65 %
30.06.2019 00:44 25,5 C 23,3 C 22,8 C 51 % 1013,5 hPa 0,0 l/m 0 min 0 min 0 W/m 9,7 km/h (2 Bft) 95,74 %
30.06.2019 00:46 25,4 C 23,3 C 22,8 C 51 % 1013,5 hPa 0,0 l/m 0 min 0 min 0 W/m 6,4 km/h (2 Bft) 97,87 %
30.06.2019 00:48 25,4 C 23,3 C 22,8 C 51 % 1013,4 hPa 0,0 l/m 0 min 0 min 0 W/m 6,4 km/h (2 Bft) 97,87 %
30.06.2019 00:50 25,3 C 22,8 C 22,8 C 51 % 1013,5 hPa 0,0 l/m 0 min 0 min 0 W/m 6,4 km/h (2 Bft) 97,87 %
30.06.2019 00:52 25,2 C 22,8 C 22,8 C 51 % 1013,5 hPa 0,0 l/m 0 min 0 min 0 W/m 6,4 km/h (2 Bft) 95,74 %
30.06.2019 00:54 25,2 C 22,8 C 22,8 C 52 % 1013,4 hPa 0,0 l/m 0 min 0 min 0 W/m 9,7 km/h (2 Bft) 95,65 %
30.06.2019 00:56 25,1 C 22,8 C 22,8 C 52 % 1013,5 hPa 0,0 l/m 0 min 0 min 0 W/m 9,7 km/h (2 Bft) 97,87 %
30.06.2019 00:58 25,1 C 22,8 C 22,8 C 52 % 1013,5 hPa 0,0 l/m 0 min 0 min 0 W/m 9,7 km/h (2 Bft) 97,87 %
30.06.2019 01:00 24,9 C 22,8 C 22,8 C 52 % 1013,4 hPa 0,0 l/m 0 min 0 min 0 W/m 9,7 km/h (2 Bft) 95,74 %
30.06.2019 01:02 24,9 C 22,8 C 22,8 C 52 % 1013,4 hPa 0,0 l/m 0 min 0 min 0 W/m 16,1 km/h (3 Bft) 95,74 %
30.06.2019 01:04 24,8 C 23,3 C 22,8 C 52 % 1013,4 hPa 0,0 l/m 0 min 0 min 0 W/m 16,1 km/h (3 Bft) 93,62 %
30.06.2019 01:06 24,7 C 23,3 C 22,8 C 53 % 1013,4 hPa 0,0 l/m 0 min 0 min 0 W/m 9,7 km/h (2 Bft) 93,48 %
30.06.2019 01:08 24,7 C 22,8 C 22,8 C 53 % 1013,4 hPa 0,0 l/m 0 min 0 min 0 W/m 16,1 km/h (3 Bft) 95,74 %
30.06.2019 01:10 24,6 C 22,8 C 22,8 C 53 % 1013,3 hPa 0,0 l/m 0 min 0 min 0 W/m 9,7 km/h (2 Bft) 97,87 %
30.06.2019 01:12 24,5 C 22,8 C 22,8 C 53 % 1013,3 hPa 0,0 l/m 0 min 0 min 0 W/m 16,1 km/h (3 Bft) 95,74 %
30.06.2019 01:14 24,4 C 22,8 C 22,8 C 53 % 1013,3 hPa 0,0 l/m 0 min 0 min 0 W/m 6,4 km/h (2 Bft) 97,87 %
30.06.2019 01:16 24,4 C 22,8 C 22,8 C 53 % 1013,3 hPa 0,0 l/m 0 min 0 min 0 W/m 9,7 km/h (2 Bft) 97,87 %
30.06.2019 01:18 24,4 C 22,8 C 22,8 C 53 % 1013,3 hPa 0,0 l/m 0 min 0 min 0 W/m 6,4 km/h (2 Bft) 97,83 %
30.06.2019 01:20 24,3 C 22,8 C 22,2 C 54 % 1013,2 hPa 0,0 l/m 0 min 0 min 0 W/m 9,7 km/h (2 Bft) 97,87 %
30.06.2019 01:22 24,3 C 22,8 C 22,2 C 54 % 1013,3 hPa 0,0 l/m 0 min 0 min 0 W/m 9,7 km/h (2 Bft) 97,87 %
30.06.2019 01:24 24,2 C 22,8 C 22,2 C 54 % 1013,3 hPa 0,0 l/m 0 min 0 min 0 W/m 9,7 km/h (2 Bft) 97,87 %
30.06.2019 01:26 24,2 C 22,8 C 22,2 C 54 % 1013,3 hPa 0,0 l/m 0 min 0 min 0 W/m 9,7 km/h (2 Bft) 93,62 %
30.06.2019 01:28 24,2 C 22,8 C 22,2 C 54 % 1013,2 hPa 0,0 l/m 0 min 0 min 0 W/m 9,7 km/h (2 Bft) 97,87 %
30.06.2019 01:30 24,1 C 22,8 C 22,2 C 54 % 1013,2 hPa 0,0 l/m 0 min 0 min 0 W/m 9,7 km/h (2 Bft) 100,00 %
30.06.2019 01:32 24,1 C 22,2 C 22,2 C 55 % 1013,2 hPa 0,0 l/m 0 min 0 min 0 W/m 9,7 km/h (2 Bft) 100,00 %
30.06.2019 01:34 24,1 C 22,2 C 22,2 C 55 % 1013,2 hPa 0,0 l/m 0 min 0 min 0 W/m 6,4 km/h (2 Bft) 100,00 %
30.06.2019 01:36 24,0 C 22,2 C 22,2 C 55 % 1013,2 hPa 0,0 l/m 0 min 0 min 0 W/m 12,9 km/h (3 Bft) 97,87 %
30.06.2019 01:38 24,0 C 22,2 C 22,2 C 55 % 1013,2 hPa 0,0 l/m 0 min 0 min 0 W/m 19,3 km/h (3 Bft) 97,87 %
30.06.2019 01:40 23,9 C 22,2 C 22,2 C 55 % 1013,2 hPa 0,0 l/m 0 min 0 min 0 W/m 9,7 km/h (2 Bft) 100,00 %
30.06.2019 01:42 23,9 C 22,2 C 21,7 C 55 % 1013,3 hPa 0,0 l/m 0 min 0 min 0 W/m 9,7 km/h (2 Bft) 100,00 %
30.06.2019 01:44 23,9 C 22,2 C 22,2 C 55 % 1013,2 hPa 0,0 l/m 0 min 0 min 0 W/m 6,4 km/h (2 Bft) 100,00 %
30.06.2019 01:46 23,8 C 22,2 C 21,7 C 55 % 1013,2 hPa 0,0 l/m 0 min 0 min 0 W/m 6,4 km/h (2 Bft) 100,00 %
30.06.2019 01:48 23,8 C 22,2 C 21,7 C 56 % 1013,2 hPa 0,0 l/m 0 min 0 min 0 W/m 16,1 km/h (3 Bft) 100,00 %
30.06.2019 01:50 23,7 C 22,2 C 21,7 C 56 % 1013,2 hPa 0,0 l/m 0 min 0 min 0 W/m 6,4 km/h (2 Bft) 100,00 %
30.06.2019 01:52 23,7 C 22,2 C 21,7 C 56 % 1013,2 hPa 0,0 l/m 0 min 0 min 0 W/m 12,9 km/h (3 Bft) 97,83 %
30.06.2019 01:54 23,7 C 22,2 C 21,7 C 56 % 1013,2 hPa 0,0 l/m 0 min 0 min 0 W/m 9,7 km/h (2 Bft) 97,87 %
30.06.2019 01:56 23,6 C 22,2 C 21,7 C 56 % 1013,1 hPa 0,0 l/m 0 min 0 min 0 W/m 9,7 km/h (2 Bft) 97,87 %
30.06.2019 01:58 23,6 C 21,7 C 21,7 C 56 % 1013,1 hPa 0,0 l/m 0 min 0 min 0 W/m 9,7 km/h (2 Bft) 95,74 %
30.06.2019 02:00 23,6 C 21,7 C 21,7 C 57 % 1013,1 hPa 0,0 l/m 0 min 0 min 0 W/m 9,7 km/h (2 Bft) 95,74 %
30.06.2019 02:02 23,5 C 21,7 C 21,7 C 57 % 1013,1 hPa 0,0 l/m 0 min 0 min 0 W/m 9,7 km/h (2 Bft) 97,87 %
30.06.2019 02:04 23,4 C 21,7 C 21,7 C 57 % 1013,1 hPa 0,0 l/m 0 min 0 min 0 W/m 6,4 km/h (2 Bft) 95,65 %
30.06.2019 02:06 23,4 C 21,7 C 21,7 C 57 % 1013,1 hPa 0,0 l/m 0 min 0 min 0 W/m 9,7 km/h (2 Bft) 95,74 %
30.06.2019 02:08 23,3 C 21,7 C 21,7 C 57 % 1013,0 hPa 0,0 l/m 0 min 0 min 0 W/m 9,7 km/h (2 Bft) 95,74 %
30.06.2019 02:10 23,3 C 21,7 C 21,1 C 57 % 1013,0 hPa 0,0 l/m 0 min 0 min 0 W/m 9,7 km/h (2 Bft) 95,74 %
30.06.2019 02:12 23,3 C 21,1 C 21,1 C 57 % 1013,0 hPa 0,0 l/m 0 min 0 min 0 W/m 6,4 km/h (2 Bft) 93,62 %
30.06.2019 02:14 23,2 C 21,1 C 21,1 C 57 % 1013,0 hPa 0,0 l/m 0 min 0 min 0 W/m 9,7 km/h (2 Bft) 97,87 %
30.06.2019 02:16 23,2 C 21,1 C 21,1 C 57 % 1013,0 hPa 0,0 l/m 0 min 0 min 0 W/m 9,7 km/h (2 Bft) 97,83 %
30.06.2019 02:18 23,1 C 21,1 C 21,1 C 58 % 1012,9 hPa 0,0 l/m 0 min 0 min 0 W/m 9,7 km/h (2 Bft) 97,87 %
30.06.2019 02:20 23,0 C 21,1 C 21,1 C 58 % 1013,0 hPa 0,0 l/m 0 min 0 min 0 W/m 6,4 km/h (2 Bft) 97,87 %
30.06.2019 02:22 23,0 C 21,1 C 21,1 C 58 % 1013,0 hPa 0,0 l/m 0 min 0 min 0 W/m 6,4 km/h (2 Bft) 93,62 %
30.06.2019 02:24 22,9 C 21,1 C 21,1 C 58 % 1013,0 hPa 0,0 l/m 0 min 0 min 0 W/m 9,7 km/h (2 Bft) 95,74 %
30.06.2019 02:26 22,9 C 21,1 C 21,1 C 58 % 1012,9 hPa 0,0 l/m 0 min 0 min 0 W/m 6,4 km/h (2 Bft) 97,87 %
30.06.2019 02:28 22,8 C 21,1 C 20,6 C 58 % 1012,9 hPa 0,0 l/m 0 min 0 min 0 W/m 6,4 km/h (2 Bft) 97,83 %
30.06.2019 02:30 22,8 C 21,1 C 20,6 C 58 % 1013,0 hPa 0,0 l/m 0 min 0 min 0 W/m 3,2 km/h (1 Bft) 95,74 %
30.06.2019 02:32 22,8 C 21,1 C 20,6 C 58 % 1013,0 hPa 0,0 l/m 0 min 0 min 0 W/m 6,4 km/h (2 Bft) 97,87 %
30.06.2019 02:34 22,7 C 21,1 C 21,1 C 58 % 1012,9 hPa 0,0 l/m 0 min 0 min 0 W/m 6,4 km/h (2 Bft) 97,87 %
30.06.2019 02:36 22,7 C 21,1 C 21,1 C 58 % 1012,9 hPa 0,0 l/m 0 min 0 min 0 W/m 9,7 km/h (2 Bft) 97,87 %
30.06.2019 02:38 22,7 C 21,1 C 21,1 C 58 % 1012,8 hPa 0,0 l/m 0 min 0 min 0 W/m 9,7 km/h (2 Bft) 97,83 %
30.06.2019 02:40 22,6 C 21,1 C 21,1 C 58 % 1012,9 hPa 0,0 l/m 0 min 0 min 0 W/m 6,4 km/h (2 Bft) 100,00 %
30.06.2019 02:42 22,6 C 21,1 C 21,1 C 59 % 1012,9 hPa 0,0 l/m 0 min 0 min 0 W/m 9,7 km/h (2 Bft) 97,87 %
30.06.2019 02:44 22,5 C 21,1 C 20,6 C 59 % 1012,9 hPa 0,0 l/m 0 min 0 min 0 W/m 9,7 km/h (2 Bft) 100,00 %
30.06.2019 02:46 22,5 C 21,1 C 20,6 C 59 % 1012,9 hPa 0,0 l/m 0 min 0 min 0 W/m 6,4 km/h (2 Bft) 100,00 %
30.06.2019 02:48 22,4 C 21,1 C 20,6 C 59 % 1012,8 hPa 0,0 l/m 0 min 0 min 0 W/m 9,7 km/h (2 Bft) 91,49 %
30.06.2019 02:50 22,4 C 21,1 C 20,6 C 59 % 1012,8 hPa 0,0 l/m 0 min 0 min 0 W/m 9,7 km/h (2 Bft) 97,83 %
30.06.2019 02:52 22,3 C 20,6 C 20,6 C 59 % 1012,7 hPa 0,0 l/m 0 min 0 min 0 W/m 9,7 km/h (2 Bft) 97,87 %
30.06.2019 02:54 22,3 C 20,6 C 20,6 C 59 % 1012,8 hPa 0,0 l/m 0 min 0 min 0 W/m 9,7 km/h (2 Bft) 97,87 %
30.06.2019 02:56 22,3 C 20,6 C 20,6 C 59 % 1012,8 hPa 0,0 l/m 0 min 0 min 0 W/m 9,7 km/h (2 Bft) 97,87 %
30.06.2019 02:58 22,3 C 20,6 C 20,6 C 59 % 1012,8 hPa 0,0 l/m 0 min 0 min 0 W/m 9,7 km/h (2 Bft) 97,87 %
30.06.2019 03:00 22,2 C 20,6 C 20,6 C 60 % 1012,8 hPa 0,0 l/m 0 min 0 min 0 W/m 6,4 km/h (2 Bft) 97,87 %
30.06.2019 03:02 22,2 C 20,6 C 20,6 C 60 % 1012,7 hPa 0,0 l/m 0 min 0 min 0 W/m 6,4 km/h (2 Bft) 97,83 %
30.06.2019 03:04 22,2 C 20,6 C 20,6 C 60 % 1012,7 hPa 0,0 l/m 0 min 0 min 0 W/m 9,7 km/h (2 Bft) 97,87 %
30.06.2019 03:06 22,1 C 20,6 C 20,6 C 60 % 1012,7 hPa 0,0 l/m 0 min 0 min 0 W/m 9,7 km/h (2 Bft) 95,74 %
30.06.2019 03:08 22,1 C 20,6 C 20,6 C 60 % 1012,6 hPa 0,0 l/m 0 min 0 min 0 W/m 6,4 km/h (2 Bft) 95,74 %
30.06.2019 03:10 22,1 C 20,6 C 20,0 C 60 % 1012,7 hPa 0,0 l/m 0 min 0 min 0 W/m 6,4 km/h (2 Bft) 97,87 %
30.06.2019 03:12 22,0 C 20,6 C 20,0 C 60 % 1012,6 hPa 0,0 l/m 0 min 0 min 0 W/m 12,9 km/h (3 Bft) 97,87 %
30.06.2019 03:14 22,0 C 20,6 C 20,0 C 60 % 1012,7 hPa 0,0 l/m 0 min 0 min 0 W/m 6,4 km/h (2 Bft) 97,83 %
30.06.2019 03:16 21,9 C 20,0 C 20,0 C 60 % 1012,6 hPa 0,0 l/m 0 min 0 min 0 W/m 6,4 km/h (2 Bft) 95,74 %
30.06.2019 03:18 21,9 C 20,0 C 20,0 C 60 % 1012,6 hPa 0,0 l/m 0 min 0 min 0 W/m 6,4 km/h (2 Bft) 95,74 %
30.06.2019 03:20 21,9 C 20,6 C 20,0 C 61 % 1012,6 hPa 0,0 l/m 0 min 0 min 0 W/m 9,7 km/h (2 Bft) 97,87 %
30.06.2019 03:22 21,8 C 20,0 C 20,0 C 61 % 1012,6 hPa 0,0 l/m 0 min 0 min 0 W/m 6,4 km/h (2 Bft) 97,87 %
30.06.2019 03:24 21,8 C 20,0 C 20,0 C 61 % 1012,5 hPa 0,0 l/m 0 min 0 min 0 W/m 9,7 km/h (2 Bft) 95,74 %
30.06.2019 03:26 21,8 C 20,0 C 20,0 C 61 % 1012,6 hPa 0,0 l/m 0 min 0 min 0 W/m 6,4 km/h (2 Bft) 93,48 %
30.06.2019 03:28 21,7 C 20,0 C 20,0 C 61 % 1012,6 hPa 0,0 l/m 0 min 0 min 0 W/m 6,4 km/h (2 Bft) 97,87 %
30.06.2019 03:30 21,7 C 20,0 C 20,0 C 62 % 1012,6 hPa 0,0 l/m 0 min 0 min 0 W/m 6,4 km/h (2 Bft) 97,87 %
30.06.2019 03:32 21,7 C 20,0 C 20,0 C 62 % 1012,5 hPa 0,0 l/m 0 min 0 min 0 W/m 9,7 km/h (2 Bft) 93,62 %
30.06.2019 03:34 21,6 C 20,0 C 20,0 C 62 % 1012,5 hPa 0,0 l/m 0 min 0 min 0 W/m 6,4 km/h (2 Bft) 95,74 %
30.06.2019 03:36 21,6 C 20,0 C 20,0 C 62 % 1012,5 hPa 0,0 l/m 0 min 0 min 0 W/m 9,7 km/h (2 Bft) 93,62 %
30.06.2019 03:38 21,5 C 20,0 C 20,0 C 62 % 1012,5 hPa 0,0 l/m 0 min 0 min 0 W/m 6,4 km/h (2 Bft) 95,65 %
30.06.2019 03:40 21,5 C 20,0 C 19,4 C 62 % 1012,4 hPa 0,0 l/m 0 min 0 min 0 W/m 6,4 km/h (2 Bft) 93,62 %
30.06.2019 03:42 21,4 C 19,4 C 19,4 C 62 % 1012,5 hPa 0,0 l/m 0 min 0 min 0 W/m 6,4 km/h (2 Bft) 95,74 %
30.06.2019 03:44 21,4 C 19,4 C 19,4 C 62 % 1012,5 hPa 0,0 l/m 0 min 0 min 0 W/m 6,4 km/h (2 Bft) 95,74 %
30.06.2019 03:46 21,4 C 19,4 C 19,4 C 62 % 1012,5 hPa 0,0 l/m 0 min 0 min 0 W/m 6,4 km/h (2 Bft) 97,87 %
30.06.2019 03:48 21,3 C 19,4 C 19,4 C 62 % 1012,4 hPa 0,0 l/m 0 min 0 min 0 W/m 9,7 km/h (2 Bft) 97,83 %
30.06.2019 03:50 21,3 C 19,4 C 19,4 C 62 % 1012,3 hPa 0,0 l/m 0 min 0 min 0 W/m 9,7 km/h (2 Bft) 97,87 %
30.06.2019 03:52 21,3 C 20,0 C 19,4 C 63 % 1012,3 hPa 0,0 l/m 0 min 0 min 0 W/m 9,7 km/h (2 Bft) 95,74 %
30.06.2019 03:54 21,2 C 20,0 C 19,4 C 63 % 1012,3 hPa 0,0 l/m 0 min 0 min 0 W/m 9,7 km/h (2 Bft) 97,87 %
30.06.2019 03:56 21,2 C 19,4 C 19,4 C 63 % 1012,3 hPa 0,0 l/m 0 min 0 min 0 W/m 6,4 km/h (2 Bft) 97,87 %
30.06.2019 03:58 21,2 C 20,0 C 19,4 C 63 % 1012,2 hPa 0,0 l/m 0 min 0 min 0 W/m 9,7 km/h (2 Bft) 95,74 %
30.06.2019 04:00 21,1 C 20,0 C 19,4 C 64 % 1012,3 hPa 0,0 l/m 0 min 0 min 0 W/m 12,9 km/h (3 Bft) 97,83 %
30.06.2019 04:02 21,1 C 20,0 C 19,4 C 64 % 1012,3 hPa 0,0 l/m 0 min 0 min 0 W/m 19,3 km/h (3 Bft) 92,86 %
30.06.2019 04:04 21,1 C 20,0 C 20,0 C 64 % 1012,2 hPa 0,0 l/m 0 min 0 min 0 W/m 9,7 km/h (2 Bft) 97,87 %
30.06.2019 04:06 21,0 C 20,0 C 19,4 C 64 % 1012,2 hPa 0,0 l/m 0 min 0 min 0 W/m 12,9 km/h (3 Bft) 97,87 %
30.06.2019 04:08 21,0 C 20,0 C 19,4 C 64 % 1012,2 hPa 0,0 l/m 0 min 0 min 0 W/m 6,4 km/h (2 Bft) 97,87 %
30.06.2019 04:10 21,0 C 20,0 C 19,4 C 64 % 1012,1 hPa 0,0 l/m 0 min 0 min 0 W/m 9,7 km/h (2 Bft) 97,87 %
30.06.2019 04:12 21,0 C 20,0 C 19,4 C 64 % 1012,1 hPa 0,0 l/m 0 min 0 min 0 W/m 9,7 km/h (2 Bft) 95,65 %
30.06.2019 04:14 21,0 C 19,4 C 19,4 C 65 % 1012,2 hPa 0,0 l/m 0 min 0 min 0 W/m 9,7 km/h (2 Bft) 97,87 %
30.06.2019 04:16 21,0 C 19,4 C 19,4 C 65 % 1012,1 hPa 0,0 l/m 0 min 0 min 0 W/m 12,9 km/h (3 Bft) 97,87 %
30.06.2019 04:18 20,9 C 19,4 C 19,4 C 65 % 1012,1 hPa 0,0 l/m 0 min 0 min 0 W/m 9,7 km/h (2 Bft) 93,62 %
30.06.2019 04:20 20,9 C 19,4 C 19,4 C 65 % 1012,1 hPa 0,0 l/m 0 min 0 min 0 W/m 9,7 km/h (2 Bft) 97,87 %
30.06.2019 04:22 20,9 C 19,4 C 19,4 C 65 % 1012,0 hPa 0,0 l/m 0 min 0 min 0 W/m 9,7 km/h (2 Bft) 100,00 %
30.06.2019 04:24 20,9 C 19,4 C 19,4 C 65 % 1012,1 hPa 0,0 l/m 0 min 0 min 0 W/m 9,7 km/h (2 Bft) 100,00 %
30.06.2019 04:26 20,9 C 19,4 C 19,4 C 65 % 1012,1 hPa 0,0 l/m 0 min 0 min 0 W/m 16,1 km/h (3 Bft) 100,00 %
30.06.2019 04:28 20,8 C 19,4 C 19,4 C 65 % 1012,1 hPa 0,0 l/m 0 min 0 min 0 W/m 9,7 km/h (2 Bft) 100,00 %
30.06.2019 04:30 20,8 C 19,4 C 19,4 C 65 % 1012,1 hPa 0,0 l/m 0 min 0 min 0 W/m 9,7 km/h (2 Bft) 100,00 %
30.06.2019 04:32 20,8 C 19,4 C 19,4 C 66 % 1012,0 hPa 0,0 l/m 0 min 0 min 0 W/m 16,1 km/h (3 Bft) 100,00 %
30.06.2019 04:34 20,8 C 19,4 C 19,4 C 66 % 1012,0 hPa 0,0 l/m 0 min 0 min 0 W/m 9,7 km/h (2 Bft) 97,87 %
30.06.2019 04:36 20,7 C 19,4 C 19,4 C 66 % 1011,9 hPa 0,0 l/m 0 min 0 min 0 W/m 12,9 km/h (3 Bft) 100,00 %
30.06.2019 04:38 20,7 C 19,4 C 18,9 C 66 % 1012,0 hPa 0,0 l/m 0 min 0 min 0 W/m 9,7 km/h (2 Bft) 100,00 %
30.06.2019 04:40 20,7 C 19,4 C 18,9 C 66 % 1011,9 hPa 0,0 l/m 0 min 0 min 0 W/m 6,4 km/h (2 Bft) 97,87 %
30.06.2019 04:42 20,7 C 19,4 C 18,9 C 66 % 1011,9 hPa 0,0 l/m 0 min 0 min 0 W/m 12,9 km/h (3 Bft) 95,74 %
30.06.2019 04:44 20,7 C 19,4 C 18,9 C 66 % 1012,0 hPa 0,0 l/m 0 min 0 min 0 W/m 9,7 km/h (2 Bft) 97,87 %
30.06.2019 04:46 20,6 C 19,4 C 18,9 C 66 % 1012,0 hPa 0,0 l/m 0 min 0 min 0 W/m 9,7 km/h (2 Bft) 97,83 %
30.06.2019 04:48 20,6 C 19,4 C 18,9 C 66 % 1012,0 hPa 0,0 l/m 0 min 0 min 0 W/m 19,3 km/h (3 Bft) 95,74 %
30.06.2019 04:50 20,6 C 19,4 C 19,4 C 66 % 1012,0 hPa 0,0 l/m 0 min 0 min 0 W/m 16,1 km/h (3 Bft) 97,87 %
30.06.2019 04:52 20,6 C 19,4 C 19,4 C 66 % 1012,0 hPa 0,0 l/m 0 min 0 min 0 W/m 9,7 km/h (2 Bft) 97,87 %
30.06.2019 04:54 20,6 C 19,4 C 19,4 C 66 % 1012,0 hPa 0,0 l/m 0 min 0 min 0 W/m 12,9 km/h (3 Bft) 97,87 %
30.06.2019 04:56 20,6 C 19,4 C 19,4 C 66 % 1011,9 hPa 0,0 l/m 0 min 0 min 0 W/m 9,7 km/h (2 Bft) 97,87 %
30.06.2019 04:58 20,5 C 19,4 C 18,9 C 66 % 1011,9 hPa 0,0 l/m 0 min 0 min 0 W/m 9,7 km/h (2 Bft) 97,83 %
30.06.2019 05:00 20,5 C 19,4 C 18,9 C 66 % 1011,9 hPa 0,0 l/m 0 min 0 min 0 W/m 16,1 km/h (3 Bft) 93,62 %
30.06.2019 05:02 20,5 C 19,4 C 18,9 C 66 % 1012,0 hPa 0,0 l/m 0 min 0 min 0 W/m 9,7 km/h (2 Bft) 97,87 %
30.06.2019 05:04 20,5 C 19,4 C 18,9 C 66 % 1011,9 hPa 0,0 l/m 0 min 0 min 0 W/m 6,4 km/h (2 Bft) 97,87 %
30.06.2019 05:06 20,4 C 18,9 C 18,9 C 66 % 1012,0 hPa 0,0 l/m 0 min 0 min 0 W/m 9,7 km/h (2 Bft) 97,87 %
30.06.2019 05:08 20,4 C 18,9 C 18,9 C 66 % 1011,9 hPa 0,0 l/m 0 min 0 min 0 W/m 9,7 km/h (2 Bft) 97,87 %
30.06.2019 05:10 20,4 C 18,9 C 18,9 C 66 % 1011,9 hPa 0,0 l/m 0 min 0 min 0 W/m 9,7 km/h (2 Bft) 95,65 %
30.06.2019 05:12 20,4 C 19,4 C 18,9 C 66 % 1011,9 hPa 0,0 l/m 0 min 0 min 0 W/m 22,5 km/h (4 Bft) 97,87 %
30.06.2019 05:14 20,4 C 19,4 C 18,9 C 66 % 1011,9 hPa 0,0 l/m 0 min 0 min 0 W/m 16,1 km/h (3 Bft) 95,74 %
30.06.2019 05:16 20,4 C 19,4 C 18,9 C 66 % 1011,9 hPa 0,0 l/m 0 min 0 min 0 W/m 16,1 km/h (3 Bft) 95,74 %
30.06.2019 05:18 20,4 C 19,4 C 18,9 C 66 % 1011,9 hPa 0,0 l/m 0 min 0 min 0 W/m 16,1 km/h (3 Bft) 97,87 %
30.06.2019 05:20 20,3 C 19,4 C 18,9 C 66 % 1011,9 hPa 0,0 l/m 0 min 0 min 0 W/m 16,1 km/h (3 Bft) 97,87 %
30.06.2019 05:22 20,3 C 19,4 C 18,9 C 66 % 1011,9 hPa 0,0 l/m 0 min 0 min 0 W/m 16,1 km/h (3 Bft) 95,65 %
30.06.2019 05:24 20,3 C 19,4 C 18,9 C 66 % 1011,9 hPa 0,0 l/m 0 min 0 min 0 W/m 9,7 km/h (2 Bft) 95,74 %
30.06.2019 05:26 20,3 C 18,9 C 18,9 C 66 % 1011,9 hPa 0,0 l/m 0 min 0 min 4 W/m 16,1 km/h (3 Bft) 95,74 %
30.06.2019 05:28 20,3 C 18,9 C 18,9 C 66 % 1011,8 hPa 0,0 l/m 0 min 0 min 5 W/m 9,7 km/h (2 Bft) 100,00 %
30.06.2019 05:30 20,3 C 18,9 C 18,9 C 66 % 1011,9 hPa 0,0 l/m 0 min 0 min 5 W/m 9,7 km/h (2 Bft) 100,00 %
30.06.2019 05:32 20,3 C 18,9 C 18,9 C 67 % 1011,9 hPa 0,0 l/m 0 min 0 min 5 W/m 19,3 km/h (3 Bft) 100,00 %
30.06.2019 05:34 20,3 C 18,9 C 18,9 C 67 % 1011,8 hPa 0,0 l/m 0 min 0 min 7 W/m 25,7 km/h (4 Bft) 100,00 %
30.06.2019 05:36 20,2 C 18,9 C 18,9 C 67 % 1011,9 hPa 0,0 l/m 0 min 0 min 7 W/m 9,7 km/h (2 Bft) 100,00 %
30.06.2019 05:38 20,2 C 18,9 C 18,9 C 67 % 1011,9 hPa 0,0 l/m 0 min 0 min 7 W/m 9,7 km/h (2 Bft) 97,87 %
30.06.2019 05:40 20,2 C 18,9 C 18,9 C 67 % 1011,8 hPa 0,0 l/m 0 min 0 min 8 W/m 9,7 km/h (2 Bft) 100,00 %
30.06.2019 05:42 20,2 C 18,9 C 18,9 C 67 % 1011,8 hPa 0,0 l/m 0 min 0 min 9 W/m 12,9 km/h (3 Bft) 97,87 %
30.06.2019 05:44 20,2 C 18,9 C 18,9 C 67 % 1011,8 hPa 0,0 l/m 0 min 0 min 9 W/m 19,3 km/h (3 Bft) 93,62 %
30.06.2019 05:46 20,2 C 18,9 C 18,9 C 67 % 1011,9 hPa 0,0 l/m 0 min 0 min 9 W/m 12,9 km/h (3 Bft) 100,00 %
30.06.2019 05:48 20,2 C 18,9 C 18,9 C 67 % 1011,9 hPa 0,0 l/m 0 min 0 min 10 W/m 16,1 km/h (3 Bft) 97,87 %
30.06.2019 05:50 20,2 C 18,9 C 18,9 C 67 % 1011,8 hPa 0,0 l/m 0 min 0 min 11 W/m 16,1 km/h (3 Bft) 100,00 %
30.06.2019 05:52 20,1 C 18,9 C 18,9 C 67 % 1011,8 hPa 0,0 l/m 0 min 0 min 11 W/m 12,9 km/h (3 Bft) 100,00 %
30.06.2019 05:54 20,1 C 18,9 C 18,9 C 67 % 1011,9 hPa 0,0 l/m 0 min 0 min 11 W/m 9,7 km/h (2 Bft) 97,87 %
30.06.2019 05:56 20,1 C 19,4 C 18,9 C 67 % 1011,9 hPa 0,0 l/m 0 min 0 min 12 W/m 22,5 km/h (4 Bft) 100,00 %
30.06.2019 05:58 20,1 C 19,4 C 18,9 C 67 % 1011,8 hPa 0,0 l/m 0 min 0 min 12 W/m 22,5 km/h (4 Bft) 100,00 %
30.06.2019 06:00 20,1 C 19,4 C 18,9 C 67 % 1011,8 hPa 0,0 l/m 0 min 0 min 12 W/m 16,1 km/h (3 Bft) 100,00 %
30.06.2019 06:02 20,1 C 19,4 C 18,9 C 67 % 1011,8 hPa 0,0 l/m 0 min 0 min 12 W/m 22,5 km/h (4 Bft) 100,00 %
30.06.2019 06:04 20,1 C 19,4 C 18,9 C 67 % 1011,8 hPa 0,0 l/m 0 min 0 min 14 W/m 12,9 km/h (3 Bft) 100,00 %
30.06.2019 06:08 20,1 C 19,4 C 18,9 C 68 % 1011,9 hPa 0,0 l/m 0 min 0 min 14 W/m 16,1 km/h (3 Bft) 100,00 %
30.06.2019 06:10 20,1 C 19,4 C 18,9 C 68 % 1011,9 hPa 0,0 l/m 0 min 0 min 14 W/m 12,9 km/h (3 Bft) 97,87 %
30.06.2019 06:12 20,1 C 19,4 C 18,9 C 68 % 1011,8 hPa 0,0 l/m 0 min 0 min 16 W/m 16,1 km/h (3 Bft) 95,74 %
30.06.2019 06:14 20,1 C 19,4 C 18,9 C 68 % 1011,8 hPa 0,0 l/m 0 min 0 min 16 W/m 16,1 km/h (3 Bft) 100,00 %
30.06.2019 06:16 20,1 C 19,4 C 18,9 C 68 % 1011,9 hPa 0,0 l/m 0 min 0 min 18 W/m 19,3 km/h (3 Bft) 97,87 %
30.06.2019 06:18 20,2 C 19,4 C 18,9 C 68 % 1011,9 hPa 0,0 l/m 0 min 0 min 18 W/m 16,1 km/h (3 Bft) 100,00 %
30.06.2019 06:20 20,1 C 19,4 C 18,9 C 68 % 1011,9 hPa 0,0 l/m 0 min 0 min 18 W/m 9,7 km/h (2 Bft) 91,30 %
30.06.2019 06:22 20,2 C 19,4 C 18,9 C 68 % 1011,9 hPa 0,0 l/m 0 min 0 min 19 W/m 9,7 km/h (2 Bft) 97,87 %
30.06.2019 06:24 20,2 C 19,4 C 18,9 C 68 % 1011,9 hPa 0,0 l/m 0 min 0 min 21 W/m 9,7 km/h (2 Bft) 95,74 %
30.06.2019 06:26 20,2 C 19,4 C 19,4 C 68 % 1012,0 hPa 0,0 l/m 0 min 0 min 21 W/m 16,1 km/h (3 Bft) 91,49 %
30.06.2019 06:28 20,2 C 19,4 C 19,4 C 68 % 1012,0 hPa 0,0 l/m 0 min 0 min 21 W/m 16,1 km/h (3 Bft) 95,74 %
30.06.2019 06:30 20,2 C 19,4 C 19,4 C 68 % 1011,9 hPa 0,0 l/m 0 min 0 min 23 W/m 12,9 km/h (3 Bft) 95,74 %
30.06.2019 06:32 20,2 C 19,4 C 19,4 C 68 % 1012,0 hPa 0,0 l/m 0 min 0 min 23 W/m 9,7 km/h (2 Bft) 95,65 %
30.06.2019 06:34 20,2 C 19,4 C 19,4 C 68 % 1012,0 hPa 0,0 l/m 0 min 0 min 24 W/m 16,1 km/h (3 Bft) 95,74 %
30.06.2019 06:36 20,2 C 19,4 C 19,4 C 68 % 1012,0 hPa 0,0 l/m 0 min 0 min 25 W/m 12,9 km/h (3 Bft) 95,74 %
30.06.2019 06:38 20,2 C 20,0 C 19,4 C 68 % 1012,0 hPa 0,0 l/m 0 min 0 min 25 W/m 19,3 km/h (3 Bft) 93,62 %
30.06.2019 06:40 20,3 C 20,0 C 19,4 C 68 % 1012,0 hPa 0,0 l/m 0 min 0 min 26 W/m 22,5 km/h (4 Bft) 95,74 %
30.06.2019 06:42 20,3 C 20,0 C 19,4 C 68 % 1012,0 hPa 0,0 l/m 0 min 0 min 26 W/m 16,1 km/h (3 Bft) 93,62 %
30.06.2019 06:44 20,3 C 20,0 C 19,4 C 68 % 1012,0 hPa 0,0 l/m 0 min 0 min 28 W/m 12,9 km/h (3 Bft) 95,65 %
30.06.2019 06:46 20,3 C 20,0 C 19,4 C 68 % 1012,0 hPa 0,0 l/m 0 min 0 min 28 W/m 12,9 km/h (3 Bft) 85,11 %
30.06.2019 06:48 20,4 C 20,0 C 19,4 C 68 % 1012,0 hPa 0,0 l/m 0 min 0 min 29 W/m 16,1 km/h (3 Bft) 89,36 %
30.06.2019 06:50 20,4 C 20,0 C 19,4 C 68 % 1012,0 hPa 0,0 l/m 0 min 0 min 30 W/m 9,7 km/h (2 Bft) 95,74 %
30.06.2019 06:52 20,4 C 20,0 C 19,4 C 68 % 1012,0 hPa 0,0 l/m 0 min 0 min 30 W/m 9,7 km/h (2 Bft) 97,87 %
30.06.2019 06:54 20,4 C 20,0 C 19,4 C 68 % 1012,0 hPa 0,0 l/m 0 min 0 min 32 W/m 12,9 km/h (3 Bft) 95,74 %
30.06.2019 06:56 20,4 C 20,0 C 19,4 C 68 % 1012,0 hPa 0,0 l/m 0 min 0 min 33 W/m 9,7 km/h (2 Bft) 93,48 %
30.06.2019 06:58 20,5 C 20,0 C 19,4 C 68 % 1012,0 hPa 0,0 l/m 0 min 0 min 33 W/m 12,9 km/h (3 Bft) 93,62 %
30.06.2019 07:00 20,5 C 20,0 C 20,0 C 68 % 1012,1 hPa 0,0 l/m 0 min 0 min 33 W/m 22,5 km/h (4 Bft) 93,62 %
30.06.2019 07:02 20,6 C 20,6 C 20,0 C 68 % 1012,0 hPa 0,0 l/m 0 min 0 min 35 W/m 12,9 km/h (3 Bft) 93,62 %
30.06.2019 07:04 20,6 C 20,6 C 20,0 C 68 % 1012,0 hPa 0,0 l/m 0 min 0 min 35 W/m 16,1 km/h (3 Bft) 95,74 %
30.06.2019 07:06 20,7 C 20,6 C 20,0 C 68 % 1012,0 hPa 0,0 l/m 0 min 0 min 35 W/m 16,1 km/h (3 Bft) 95,65 %
30.06.2019 07:08 20,7 C 20,6 C 20,0 C 68 % 1012,0 hPa 0,0 l/m 0 min 0 min 37 W/m 9,7 km/h (2 Bft) 95,74 %
30.06.2019 07:10 20,7 C 20,6 C 20,0 C 68 % 1012,0 hPa 0,0 l/m 0 min 0 min 37 W/m 9,7 km/h (2 Bft) 95,74 %
30.06.2019 07:12 20,8 C 20,6 C 20,0 C 68 % 1012,0 hPa 0,0 l/m 0 min 0 min 39 W/m 9,7 km/h (2 Bft) 97,87 %
30.06.2019 07:14 20,8 C 20,6 C 20,0 C 67 % 1012,0 hPa 0,0 l/m 0 min 0 min 39 W/m 22,5 km/h (4 Bft) 97,87 %
30.06.2019 07:16 20,9 C 20,6 C 20,0 C 67 % 1012,0 hPa 0,0 l/m 0 min 0 min 40 W/m 22,5 km/h (4 Bft) 97,87 %
30.06.2019 07:18 20,9 C 20,6 C 20,0 C 67 % 1012,1 hPa 0,0 l/m 0 min 0 min 40 W/m 16,1 km/h (3 Bft) 100,00 %
30.06.2019 07:20 21,0 C 21,1 C 20,6 C 67 % 1012,0 hPa 0,0 l/m 0 min 0 min 42 W/m 12,9 km/h (3 Bft) 100,00 %
30.06.2019 07:22 21,0 C 21,1 C 20,6 C 67 % 1012,0 hPa 0,0 l/m 0 min 0 min 42 W/m 22,5 km/h (4 Bft) 97,87 %
30.06.2019 07:24 21,1 C 21,1 C 20,6 C 67 % 1012,0 hPa 0,0 l/m 0 min 0 min 42 W/m 12,9 km/h (3 Bft) 97,87 %
30.06.2019 07:26 21,1 C 21,1 C 20,6 C 67 % 1012,0 hPa 0,0 l/m 0 min 0 min 44 W/m 9,7 km/h (2 Bft) 97,87 %
30.06.2019 07:28 21,1 C 21,1 C 20,6 C 67 % 1012,1 hPa 0,0 l/m 0 min 0 min 44 W/m 12,9 km/h (3 Bft) 97,87 %
30.06.2019 07:30 21,2 C 21,1 C 20,6 C 67 % 1012,0 hPa 0,0 l/m 0 min 0 min 45 W/m 12,9 km/h (3 Bft) 97,83 %
30.06.2019 07:32 21,2 C 21,1 C 20,6 C 67 % 1012,1 hPa 0,0 l/m 0 min 0 min 46 W/m 12,9 km/h (3 Bft) 97,87 %
30.06.2019 07:34 21,3 C 21,1 C 20,6 C 67 % 1012,1 hPa 0,0 l/m 0 min 0 min 46 W/m 9,7 km/h (2 Bft) 97,87 %
30.06.2019 07:36 21,3 C 21,7 C 20,6 C 67 % 1012,1 hPa 0,0 l/m 0 min 0 min 47 W/m 9,7 km/h (2 Bft) 95,74 %
30.06.2019 07:38 21,4 C 21,7 C 20,6 C 67 % 1012,1 hPa 0,0 l/m 0 min 0 min 47 W/m 9,7 km/h (2 Bft) 97,87 %
30.06.2019 07:40 21,4 C 21,7 C 21,1 C 67 % 1012,1 hPa 0,0 l/m 0 min 0 min 47 W/m 12,9 km/h (3 Bft) 93,62 %
30.06.2019 07:42 21,5 C 21,7 C 21,1 C 66 % 1012,1 hPa 0,0 l/m 0 min 0 min 49 W/m 16,1 km/h (3 Bft) 95,65 %
30.06.2019 07:44 21,6 C 21,7 C 21,1 C 66 % 1012,3 hPa 0,0 l/m 0 min 0 min 49 W/m 16,1 km/h (3 Bft) 97,87 %
30.06.2019 07:46 21,6 C 21,7 C 21,1 C 66 % 1012,3 hPa 0,0 l/m 0 min 0 min 50 W/m 9,7 km/h (2 Bft) 97,87 %
30.06.2019 07:48 21,7 C 22,2 C 21,1 C 66 % 1012,3 hPa 0,0 l/m 0 min 0 min 51 W/m 12,9 km/h (3 Bft) 95,74 %
30.06.2019 07:50 21,7 C 22,2 C 21,1 C 66 % 1012,4 hPa 0,0 l/m 0 min 0 min 51 W/m 9,7 km/h (2 Bft) 97,87 %
30.06.2019 07:52 21,8 C 22,2 C 21,1 C 66 % 1012,4 hPa 0,0 l/m 0 min 0 min 53 W/m 16,1 km/h (3 Bft) 93,62 %
30.06.2019 07:54 21,8 C 22,2 C 21,1 C 66 % 1012,5 hPa 0,0 l/m 0 min 0 min 53 W/m 16,1 km/h (3 Bft) 97,83 %
30.06.2019 07:56 21,9 C 22,2 C 21,7 C 66 % 1012,5 hPa 0,0 l/m 0 min 0 min 54 W/m 9,7 km/h (2 Bft) 97,87 %
30.06.2019 07:58 21,9 C 22,8 C 21,7 C 66 % 1012,4 hPa 0,0 l/m 0 min 0 min 54 W/m 9,7 km/h (2 Bft) 95,74 %
30.06.2019 08:00 22,0 C 23,9 C 21,7 C 66 % 1012,4 hPa 0,0 l/m 0 min 0 min 54 W/m 9,7 km/h (2 Bft) 95,74 %
30.06.2019 08:02 22,1 C 25,0 C 21,7 C 66 % 1012,4 hPa 0,0 l/m 0 min 0 min 54 W/m 9,7 km/h (2 Bft) 97,87 %
30.06.2019 08:04 22,1 C 26,1 C 21,7 C 66 % 1012,4 hPa 0,0 l/m 0 min 0 min 56 W/m 6,4 km/h (2 Bft) 100,00 %
30.06.2019 08:06 22,2 C 26,7 C 21,7 C 66 % 1012,4 hPa 0,0 l/m 0 min 0 min 56 W/m 12,9 km/h (3 Bft) 100,00 %
30.06.2019 08:08 22,3 C 27,2 C 21,7 C 66 % 1012,4 hPa 0,0 l/m 0 min 0 min 58 W/m 9,7 km/h (2 Bft) 100,00 %
30.06.2019 08:10 22,4 C 27,2 C 21,7 C 66 % 1012,5 hPa 0,0 l/m 0 min 0 min 59 W/m 6,4 km/h (2 Bft) 100,00 %
30.06.2019 08:12 22,6 C 27,8 C 22,2 C 65 % 1012,5 hPa 0,0 l/m 0 min 0 min 60 W/m 9,7 km/h (2 Bft) 100,00 %
30.06.2019 08:14 22,7 C 27,8 C 22,2 C 65 % 1012,5 hPa 0,0 l/m 0 min 0 min 61 W/m 9,7 km/h (2 Bft) 100,00 %
30.06.2019 08:16 22,8 C 28,9 C 22,2 C 65 % 1012,4 hPa 0,0 l/m 0 min 0 min 62 W/m 6,4 km/h (2 Bft) 100,00 %
30.06.2019 08:18 23,0 C 28,9 C 22,8 C 65 % 1012,4 hPa 0,0 l/m 0 min 0 min 63 W/m 6,4 km/h (2 Bft) 100,00 %
30.06.2019 08:20 23,2 C 28,3 C 22,8 C 65 % 1012,4 hPa 0,0 l/m 0 min 0 min 64 W/m 6,4 km/h (2 Bft) 97,87 %
30.06.2019 08:22 23,4 C 28,3 C 22,8 C 65 % 1012,4 hPa 0,0 l/m 0 min 0 min 65 W/m 9,7 km/h (2 Bft) 100,00 %
30.06.2019 08:24 23,6 C 28,9 C 23,3 C 64 % 1012,4 hPa 0,0 l/m 0 min 0 min 65 W/m 12,9 km/h (3 Bft) 100,00 %
30.06.2019 08:26 23,7 C 29,4 C 23,3 C 64 % 1012,4 hPa 0,0 l/m 0 min 0 min 67 W/m 6,4 km/h (2 Bft) 100,00 %
30.06.2019 08:28 23,9 C 28,9 C 23,9 C 64 % 1012,4 hPa 0,0 l/m 0 min 0 min 68 W/m 12,9 km/h (3 Bft) 100,00 %
30.06.2019 08:30 24,2 C 27,8 C 25,6 C 63 % 1012,4 hPa 0,0 l/m 0 min 0 min 69 W/m 9,7 km/h (2 Bft) 100,00 %
30.06.2019 08:32 24,4 C 28,9 C 27,2 C 62 % 1012,4 hPa 0,0 l/m 0 min 0 min 70 W/m 12,9 km/h (3 Bft) 100,00 %
30.06.2019 08:34 24,6 C 29,4 C 28,3 C 62 % 1012,4 hPa 0,0 l/m 0 min 0 min 70 W/m 9,7 km/h (2 Bft) 100,00 %
30.06.2019 08:36 24,7 C 29,4 C 28,9 C 61 % 1012,3 hPa 0,0 l/m 0 min 0 min 72 W/m 9,7 km/h (2 Bft) 100,00 %
30.06.2019 08:38 24,9 C 30,0 C 30,0 C 61 % 1012,3 hPa 0,0 l/m 0 min 0 min 73 W/m 12,9 km/h (3 Bft) 100,00 %
30.06.2019 08:40 25,1 C 30,0 C 30,6 C 61 % 1012,3 hPa 0,0 l/m 0 min 0 min 74 W/m 9,7 km/h (2 Bft) 100,00 %
30.06.2019 08:42 25,2 C 30,6 C 31,7 C 61 % 1012,3 hPa 0,0 l/m 0 min 0 min 76 W/m 9,7 km/h (2 Bft) 97,87 %
30.06.2019 08:44 25,4 C 30,0 C 31,7 C 60 % 1012,2 hPa 0,0 l/m 0 min 0 min 77 W/m 12,9 km/h (3 Bft) 100,00 %
30.06.2019 08:46 25,5 C 30,6 C 31,7 C 60 % 1012,2 hPa 0,0 l/m 0 min 0 min 78 W/m 9,7 km/h (2 Bft) 100,00 %
30.06.2019 08:48 25,7 C 30,6 C 31,1 C 60 % 1012,1 hPa 0,0 l/m 0 min 0 min 79 W/m 9,7 km/h (2 Bft) 97,87 %
30.06.2019 08:50 25,8 C 30,6 C 31,7 C 59 % 1012,2 hPa 0,0 l/m 0 min 0 min 81 W/m 9,7 km/h (2 Bft) 100,00 %
30.06.2019 08:52 26,0 C 30,6 C 31,7 C 60 % 1012,2 hPa 0,0 l/m 0 min 0 min 82 W/m 9,7 km/h (2 Bft) 95,65 %
30.06.2019 08:54 26,2 C 30,6 C 31,7 C 59 % 1012,3 hPa 0,0 l/m 0 min 0 min 84 W/m 9,7 km/h (2 Bft) 97,87 %
30.06.2019 08:56 26,3 C 32,2 C 32,8 C 60 % 1012,2 hPa 0,0 l/m 0 min 0 min 90 W/m 6,4 km/h (2 Bft) 100,00 %
30.06.2019 08:58 26,4 C 32,2 C 33,3 C 59 % 1012,2 hPa 0,0 l/m 0 min 0 min 101 W/m 9,7 km/h (2 Bft) 100,00 %
30.06.2019 09:00 26,6 C 32,2 C 33,3 C 58 % 1012,3 hPa 0,0 l/m 0 min 0 min 117 W/m 12,9 km/h (3 Bft) 100,00 %
30.06.2019 09:02 26,7 C 31,7 C 32,8 C 58 % 1012,3 hPa 0,0 l/m 0 min 0 min 137 W/m 12,9 km/h (3 Bft) 97,87 %
30.06.2019 09:04 26,9 C 31,1 C 32,2 C 58 % 1012,2 hPa 0,0 l/m 0 min 0 min 164 W/m 9,7 km/h (2 Bft) 100,00 %
30.06.2019 09:06 27,0 C 32,2 C 33,3 C 58 % 1012,3 hPa 0,0 l/m 0 min 0 min 198 W/m 6,4 km/h (2 Bft) 97,87 %
30.06.2019 09:08 27,2 C 32,2 C 32,2 C 57 % 1012,2 hPa 0,0 l/m 0 min 0 min 234 W/m 12,9 km/h (3 Bft) 100,00 %
30.06.2019 09:10 27,3 C 31,7 C 32,2 C 57 % 1012,3 hPa 0,0 l/m 0 min 0 min 273 W/m 9,7 km/h (2 Bft) 100,00 %
30.06.2019 09:12 27,4 C 32,2 C 33,3 C 57 % 1012,2 hPa 0,0 l/m 2 min 0 min 313 W/m 9,7 km/h (2 Bft) 97,87 %
30.06.2019 09:14 27,6 C 32,8 C 33,3 C 57 % 1012,3 hPa 0,0 l/m 2 min 0 min 350 W/m 12,9 km/h (3 Bft) 97,83 %
30.06.2019 09:16 27,7 C 31,7 C 32,8 C 56 % 1012,3 hPa 0,0 l/m 2 min 0 min 383 W/m 19,3 km/h (3 Bft) 100,00 %
30.06.2019 09:18 27,9 C 32,2 C 32,8 C 56 % 1012,4 hPa 0,0 l/m 2 min 0 min 416 W/m 16,1 km/h (3 Bft) 100,00 %
30.06.2019 09:20 28,0 C 32,8 C 33,3 C 57 % 1012,4 hPa 0,0 l/m 2 min 0 min 443 W/m 12,9 km/h (3 Bft) 100,00 %
30.06.2019 09:22 28,1 C 32,8 C 33,3 C 56 % 1012,4 hPa 0,0 l/m 2 min 0 min 465 W/m 9,7 km/h (2 Bft) 100,00 %
30.06.2019 09:24 28,2 C 32,8 C 33,3 C 56 % 1012,4 hPa 0,0 l/m 2 min 0 min 481 W/m 25,7 km/h (4 Bft) 97,87 %
30.06.2019 09:26 28,3 C 32,8 C 33,3 C 56 % 1012,5 hPa 0,0 l/m 2 min 0 min 493 W/m 9,7 km/h (2 Bft) 100,00 %
30.06.2019 09:28 28,4 C 32,8 C 32,2 C 56 % 1012,6 hPa 0,0 l/m 2 min 0 min 498 W/m 12,9 km/h (3 Bft) 100,00 %
30.06.2019 09:30 28,5 C 32,8 C 33,3 C 55 % 1012,6 hPa 0,0 l/m 2 min 0 min 506 W/m 9,7 km/h (2 Bft) 100,00 %
30.06.2019 09:32 28,6 C 32,8 C 33,3 C 56 % 1012,6 hPa 0,0 l/m 2 min 0 min 510 W/m 12,9 km/h (3 Bft) 97,87 %
30.06.2019 09:34 28,7 C 32,8 C 32,8 C 56 % 1012,6 hPa 0,0 l/m 2 min 0 min 514 W/m 16,1 km/h (3 Bft) 97,87 %
30.06.2019 09:36 28,7 C 32,8 C 32,8 C 56 % 1012,6 hPa 0,0 l/m 2 min 0 min 520 W/m 12,9 km/h (3 Bft) 97,87 %
30.06.2019 09:38 28,8 C 32,2 C 32,8 C 56 % 1012,6 hPa 0,0 l/m 2 min 0 min 525 W/m 9,7 km/h (2 Bft) 95,65 %
30.06.2019 09:40 28,8 C 32,8 C 32,8 C 56 % 1012,5 hPa 0,0 l/m 2 min 0 min 529 W/m 19,3 km/h (3 Bft) 95,74 %
30.06.2019 09:42 28,9 C 32,2 C 32,8 C 57 % 1012,5 hPa 0,0 l/m 2 min 0 min 536 W/m 9,7 km/h (2 Bft) 91,49 %
30.06.2019 09:44 28,9 C 32,8 C 33,3 C 57 % 1012,6 hPa 0,0 l/m 2 min 0 min 545 W/m 6,4 km/h (2 Bft) 93,62 %
30.06.2019 09:46 29,0 C 32,8 C 33,3 C 57 % 1012,6 hPa 0,0 l/m 2 min 0 min 549 W/m 16,1 km/h (3 Bft) 95,74 %
30.06.2019 09:48 29,1 C 32,8 C 33,3 C 57 % 1012,5 hPa 0,0 l/m 2 min 0 min 555 W/m 9,7 km/h (2 Bft) 97,87 %
30.06.2019 09:50 29,1 C 33,9 C 34,4 C 58 % 1012,5 hPa 0,0 l/m 2 min 0 min 560 W/m 6,4 km/h (2 Bft) 95,65 %
30.06.2019 09:52 29,2 C 33,9 C 33,9 C 57 % 1012,6 hPa 0,0 l/m 2 min 0 min 560 W/m 6,4 km/h (2 Bft) 95,74 %
30.06.2019 09:54 29,3 C 32,8 C 33,3 C 56 % 1012,5 hPa 0,0 l/m 2 min 0 min 565 W/m 9,7 km/h (2 Bft) 91,49 %
30.06.2019 09:56 29,3 C 33,3 C 33,3 C 57 % 1012,5 hPa 0,0 l/m 2 min 0 min 571 W/m 9,7 km/h (2 Bft) 93,62 %
30.06.2019 09:58 29,3 C 33,3 C 33,9 C 58 % 1012,6 hPa 0,0 l/m 2 min 0 min 579 W/m 6,4 km/h (2 Bft) 93,62 %
30.06.2019 10:00 29,4 C 33,9 C 33,9 C 57 % 1012,7 hPa 0,0 l/m 2 min 0 min 582 W/m 9,7 km/h (2 Bft) 93,62 %
30.06.2019 10:02 29,4 C 33,9 C 34,4 C 57 % 1012,6 hPa 0,0 l/m 2 min 0 min 588 W/m 12,9 km/h (3 Bft) 91,30 %
30.06.2019 10:04 29,5 C 33,9 C 34,4 C 58 % 1012,6 hPa 0,0 l/m 2 min 0 min 595 W/m 9,7 km/h (2 Bft) 93,62 %
30.06.2019 10:06 29,6 C 35,0 C 35,6 C 58 % 1012,6 hPa 0,0 l/m 2 min 0 min 602 W/m 19,3 km/h (3 Bft) 91,49 %
30.06.2019 10:08 29,7 C 35,0 C 35,0 C 58 % 1012,7 hPa 0,0 l/m 2 min 0 min 605 W/m 9,7 km/h (2 Bft) 91,49 %
30.06.2019 10:10 29,8 C 33,9 C 34,4 C 58 % 1012,7 hPa 0,0 l/m 2 min 0 min 606 W/m 12,9 km/h (3 Bft) 93,62 %
30.06.2019 10:12 29,8 C 33,9 C 33,9 C 57 % 1012,8 hPa 0,0 l/m 2 min 0 min 609 W/m 12,9 km/h (3 Bft) 91,49 %
30.06.2019 10:14 29,8 C 33,9 C 33,9 C 58 % 1012,8 hPa 0,0 l/m 2 min 0 min 616 W/m 16,1 km/h (3 Bft) 93,48 %
30.06.2019 10:16 29,8 C 35,0 C 35,0 C 58 % 1012,8 hPa 0,0 l/m 2 min 0 min 620 W/m 12,9 km/h (3 Bft) 91,49 %
30.06.2019 10:18 29,9 C 35,6 C 35,0 C 59 % 1012,8 hPa 0,0 l/m 2 min 0 min 624 W/m 6,4 km/h (2 Bft) 93,62 %
30.06.2019 10:20 29,9 C 35,0 C 35,0 C 59 % 1012,9 hPa 0,0 l/m 2 min 0 min 630 W/m 9,7 km/h (2 Bft) 95,74 %
30.06.2019 10:22 30,0 C 35,0 C 35,0 C 58 % 1012,8 hPa 0,0 l/m 2 min 0 min 638 W/m 12,9 km/h (3 Bft) 95,74 %
30.06.2019 10:24 30,1 C 35,6 C 35,6 C 58 % 1012,9 hPa 0,0 l/m 2 min 0 min 641 W/m 9,7 km/h (2 Bft) 95,65 %
30.06.2019 10:26 30,1 C 35,0 C 35,0 C 58 % 1012,8 hPa 0,0 l/m 2 min 0 min 645 W/m 9,7 km/h (2 Bft) 95,74 %
30.06.2019 10:28 30,2 C 35,0 C 35,0 C 59 % 1012,9 hPa 0,0 l/m 2 min 0 min 648 W/m 12,9 km/h (3 Bft) 93,62 %
30.06.2019 10:30 30,2 C 35,0 C 35,6 C 59 % 1013,0 hPa 0,0 l/m 2 min 0 min 653 W/m 9,7 km/h (2 Bft) 93,62 %
30.06.2019 10:32 30,2 C 33,9 C 34,4 C 58 % 1013,0 hPa 0,0 l/m 2 min 0 min 656 W/m 16,1 km/h (3 Bft) 95,74 %
30.06.2019 10:34 30,2 C 33,9 C 34,4 C 58 % 1013,0 hPa 0,0 l/m 2 min 0 min 662 W/m 12,9 km/h (3 Bft) 95,74 %
30.06.2019 10:36 30,2 C 33,9 C 34,4 C 58 % 1013,1 hPa 0,0 l/m 2 min 0 min 668 W/m 12,9 km/h (3 Bft) 97,83 %
30.06.2019 10:38 30,2 C 33,9 C 34,4 C 58 % 1013,0 hPa 0,0 l/m 2 min 0 min 675 W/m 9,7 km/h (2 Bft) 100,00 %
30.06.2019 10:40 30,3 C 33,9 C 34,4 C 59 % 1013,0 hPa 0,0 l/m 2 min 0 min 677 W/m 12,9 km/h (3 Bft) 97,87 %
30.06.2019 10:42 30,3 C 33,9 C 34,4 C 59 % 1013,2 hPa 0,0 l/m 2 min 0 min 678 W/m 12,9 km/h (3 Bft) 100,00 %
30.06.2019 10:44 30,3 C 34,4 C 35,0 C 59 % 1013,1 hPa 0,0 l/m 2 min 0 min 686 W/m 6,4 km/h (2 Bft) 100,00 %
30.06.2019 10:46 30,3 C 34,4 C 35,0 C 58 % 1013,0 hPa 0,0 l/m 2 min 0 min 689 W/m 12,9 km/h (3 Bft) 100,00 %
30.06.2019 10:48 30,3 C 34,4 C 34,4 C 59 % 1013,1 hPa 0,0 l/m 2 min 0 min 696 W/m 16,1 km/h (3 Bft) 100,00 %
30.06.2019 10:50 30,4 C 35,0 C 35,0 C 59 % 1013,1 hPa 0,0 l/m 2 min 0 min 701 W/m 16,1 km/h (3 Bft) 100,00 %
30.06.2019 10:52 30,4 C 35,0 C 36,1 C 60 % 1013,1 hPa 0,0 l/m 2 min 0 min 703 W/m 9,7 km/h (2 Bft) 100,00 %
30.06.2019 10:54 30,4 C 35,0 C 35,6 C 59 % 1013,2 hPa 0,0 l/m 2 min 0 min 709 W/m 16,1 km/h (3 Bft) 100,00 %
30.06.2019 10:56 30,5 C 35,0 C 36,1 C 59 % 1013,1 hPa 0,0 l/m 2 min 0 min 716 W/m 9,7 km/h (2 Bft) 100,00 %
30.06.2019 10:58 30,6 C 35,0 C 36,1 C 59 % 1013,0 hPa 0,0 l/m 2 min 0 min 721 W/m 12,9 km/h (3 Bft) 100,00 %
30.06.2019 11:00 30,6 C 36,1 C 36,7 C 59 % 1012,9 hPa 0,0 l/m 2 min 0 min 729 W/m 6,4 km/h (2 Bft) 100,00 %
30.06.2019 11:02 30,7 C 37,2 C 37,2 C 60 % 1012,9 hPa 0,0 l/m 2 min 0 min 730 W/m 12,9 km/h (3 Bft) 100,00 %
30.06.2019 11:04 30,8 C 37,8 C 37,8 C 59 % 1012,8 hPa 0,0 l/m 2 min 0 min 733 W/m 6,4 km/h (2 Bft) 100,00 %
30.06.2019 11:06 30,9 C 37,2 C 37,8 C 60 % 1012,9 hPa 0,0 l/m 2 min 0 min 737 W/m 9,7 km/h (2 Bft) 100,00 %
30.06.2019 11:08 31,0 C 37,2 C 37,2 C 59 % 1012,9 hPa 0,0 l/m 2 min 0 min 741 W/m 9,7 km/h (2 Bft) 100,00 %
30.06.2019 11:10 31,1 C 37,2 C 37,2 C 59 % 1012,9 hPa 0,0 l/m 2 min 0 min 742 W/m 6,4 km/h (2 Bft) 100,00 %
30.06.2019 11:12 31,2 C 36,7 C 36,7 C 59 % 1012,9 hPa 0,0 l/m 2 min 0 min 747 W/m 12,9 km/h (3 Bft) 97,83 %
30.06.2019 11:14 31,2 C 36,1 C 36,7 C 59 % 1013,0 hPa 0,0 l/m 2 min 0 min 752 W/m 29,0 km/h (5 Bft) 100,00 %
30.06.2019 11:16 31,3 C 37,2 C 36,7 C 59 % 1013,0 hPa 0,0 l/m 2 min 0 min 750 W/m 9,7 km/h (2 Bft) 97,87 %
30.06.2019 11:18 31,3 C 37,2 C 37,8 C 59 % 1013,0 hPa 0,0 l/m 2 min 0 min 758 W/m 12,9 km/h (3 Bft) 100,00 %
30.06.2019 11:20 31,4 C 37,2 C 37,2 C 60 % 1013,1 hPa 0,0 l/m 2 min 0 min 762 W/m 9,7 km/h (2 Bft) 100,00 %
30.06.2019 11:22 31,4 C 35,6 C 36,1 C 58 % 1013,1 hPa 0,0 l/m 2 min 0 min 762 W/m 9,7 km/h (2 Bft) 100,00 %
30.06.2019 11:24 31,4 C 36,1 C 36,1 C 59 % 1013,1 hPa 0,0 l/m 2 min 0 min 769 W/m 16,1 km/h (3 Bft) 100,00 %
30.06.2019 11:26 31,4 C 35,0 C 35,6 C 58 % 1013,1 hPa 0,0 l/m 2 min 0 min 771 W/m 16,1 km/h (3 Bft) 97,87 %
30.06.2019 11:28 31,4 C 36,1 C 36,1 C 58 % 1013,1 hPa 0,0 l/m 2 min 0 min 770 W/m 16,1 km/h (3 Bft) 100,00 %
30.06.2019 11:30 31,4 C 35,6 C 36,1 C 58 % 1013,3 hPa 0,0 l/m 2 min 0 min 775 W/m 19,3 km/h (3 Bft) 100,00 %
30.06.2019 11:32 31,4 C 35,0 C 35,6 C 58 % 1013,2 hPa 0,0 l/m 2 min 0 min 776 W/m 9,7 km/h (2 Bft) 100,00 %
30.06.2019 11:34 31,4 C 35,0 C 35,6 C 58 % 1013,3 hPa 0,0 l/m 2 min 0 min 781 W/m 16,1 km/h (3 Bft) 100,00 %
30.06.2019 11:36 31,4 C 35,6 C 36,7 C 59 % 1013,3 hPa 0,0 l/m 2 min 0 min 785 W/m 6,4 km/h (2 Bft) 100,00 %
30.06.2019 11:38 31,4 C 35,6 C 36,7 C 59 % 1013,3 hPa 0,0 l/m 2 min 0 min 788 W/m 16,1 km/h (3 Bft) 100,00 %
30.06.2019 11:40 31,4 C 36,1 C 36,7 C 59 % 1013,3 hPa 0,0 l/m 2 min 0 min 792 W/m 9,7 km/h (2 Bft) 100,00 %
30.06.2019 11:42 31,4 C 35,6 C 36,7 C 58 % 1013,3 hPa 0,0 l/m 2 min 0 min 795 W/m 16,1 km/h (3 Bft) 100,00 %
30.06.2019 11:44 31,4 C 35,0 C 36,1 C 58 % 1013,4 hPa 0,0 l/m 2 min 0 min 796 W/m 12,9 km/h (3 Bft) 100,00 %
30.06.2019 11:46 31,4 C 36,1 C 36,7 C 59 % 1013,4 hPa 0,0 l/m 2 min 0 min 801 W/m 9,7 km/h (2 Bft) 100,00 %
30.06.2019 11:48 31,4 C 36,7 C 37,2 C 60 % 1013,5 hPa 0,0 l/m 2 min 0 min 803 W/m 9,7 km/h (2 Bft) 100,00 %
30.06.2019 11:50 31,5 C 36,1 C 37,2 C 59 % 1013,6 hPa 0,0 l/m 2 min 0 min 807 W/m 22,5 km/h (4 Bft) 100,00 %
30.06.2019 11:52 31,5 C 36,1 C 37,2 C 59 % 1013,5 hPa 0,0 l/m 2 min 0 min 811 W/m 12,9 km/h (3 Bft) 97,87 %
30.06.2019 11:54 31,6 C 36,7 C 37,8 C 59 % 1013,6 hPa 0,0 l/m 2 min 0 min 809 W/m 12,9 km/h (3 Bft) 97,87 %
30.06.2019 11:56 31,6 C 36,1 C 37,2 C 58 % 1013,6 hPa 0,0 l/m 2 min 0 min 814 W/m 19,3 km/h (3 Bft) 100,00 %
30.06.2019 11:58 31,6 C 36,7 C 37,8 C 59 % 1013,7 hPa 0,0 l/m 2 min 0 min 816 W/m 16,1 km/h (3 Bft) 100,00 %
30.06.2019 12:00 31,6 C 36,1 C 37,8 C 59 % 1013,7 hPa 0,0 l/m 2 min 0 min 813 W/m 9,7 km/h (2 Bft) 97,87 %
30.06.2019 12:02 31,7 C 36,7 C 37,8 C 59 % 1013,6 hPa 0,0 l/m 2 min 0 min 823 W/m 12,9 km/h (3 Bft) 95,74 %
30.06.2019 12:04 31,7 C 37,2 C 38,3 C 59 % 1013,7 hPa 0,0 l/m 2 min 0 min 823 W/m 12,9 km/h (3 Bft) 100,00 %
30.06.2019 12:08 31,8 C 37,2 C 38,3 C 58 % 1013,6 hPa 0,0 l/m 4 min 0 min 828 W/m 16,1 km/h (3 Bft) 97,87 %
30.06.2019 12:10 31,9 C 36,7 C 37,8 C 59 % 1013,8 hPa 0,0 l/m 2 min 0 min 828 W/m 16,1 km/h (3 Bft) 97,83 %
30.06.2019 12:12 31,9 C 36,1 C 36,7 C 58 % 1013,8 hPa 0,0 l/m 2 min 0 min 824 W/m 22,5 km/h (4 Bft) 97,87 %
30.06.2019 12:14 31,9 C 36,1 C 37,2 C 59 % 1013,9 hPa 0,0 l/m 2 min 0 min 832 W/m 9,7 km/h (2 Bft) 97,87 %
30.06.2019 12:16 31,8 C 35,0 C 36,1 C 58 % 1013,9 hPa 0,0 l/m 2 min 0 min 830 W/m 22,5 km/h (4 Bft) 95,74 %
30.06.2019 12:18 31,7 C 35,0 C 36,7 C 58 % 1013,9 hPa 0,0 l/m 2 min 0 min 828 W/m 19,3 km/h (3 Bft) 97,87 %
30.06.2019 12:20 31,7 C 35,6 C 36,7 C 59 % 1013,9 hPa 0,0 l/m 2 min 0 min 838 W/m 16,1 km/h (3 Bft) 97,87 %
30.06.2019 12:22 31,7 C 36,1 C 37,2 C 59 % 1013,9 hPa 0,0 l/m 2 min 0 min 842 W/m 16,1 km/h (3 Bft) 97,83 %
30.06.2019 12:24 31,7 C 35,6 C 36,7 C 58 % 1013,9 hPa 0,0 l/m 2 min 0 min 837 W/m 19,3 km/h (3 Bft) 97,87 %
30.06.2019 12:26 31,7 C 36,1 C 37,2 C 59 % 1013,8 hPa 0,0 l/m 2 min 0 min 828 W/m 9,7 km/h (2 Bft) 97,87 %
30.06.2019 12:28 31,7 C 35,6 C 36,7 C 60 % 1014,0 hPa 0,0 l/m 2 min 0 min 849 W/m 19,3 km/h (3 Bft) 97,87 %
30.06.2019 12:30 31,7 C 35,6 C 36,7 C 59 % 1014,0 hPa 0,0 l/m 2 min 0 min 848 W/m 16,1 km/h (3 Bft) 93,62 %
30.06.2019 12:32 31,7 C 36,1 C 37,2 C 59 % 1014,0 hPa 0,0 l/m 2 min 0 min 840 W/m 12,9 km/h (3 Bft) 95,74 %
30.06.2019 12:34 31,7 C 36,1 C 37,2 C 59 % 1014,0 hPa 0,0 l/m 2 min 0 min 841 W/m 9,7 km/h (2 Bft) 95,65 %
30.06.2019 12:36 31,8 C 36,7 C 37,8 C 60 % 1014,0 hPa 0,0 l/m 2 min 0 min 856 W/m 9,7 km/h (2 Bft) 95,74 %
30.06.2019 12:38 31,9 C 36,7 C 37,8 C 59 % 1013,9 hPa 0,0 l/m 2 min 0 min 859 W/m 12,9 km/h (3 Bft) 95,74 %
30.06.2019 12:40 31,9 C 36,7 C 37,8 C 60 % 1014,0 hPa 0,0 l/m 2 min 0 min 853 W/m 12,9 km/h (3 Bft) 95,74 %
30.06.2019 12:42 32,0 C 36,7 C 37,8 C 59 % 1014,2 hPa 0,0 l/m 2 min 0 min 873 W/m 16,1 km/h (3 Bft) 95,74 %
30.06.2019 12:44 32,1 C 36,7 C 37,8 C 59 % 1014,2 hPa 0,0 l/m 2 min 0 min 885 W/m 9,7 km/h (2 Bft) 95,65 %
30.06.2019 12:46 32,1 C 36,1 C 37,8 C 59 % 1014,3 hPa 0,0 l/m 2 min 0 min 909 W/m 22,5 km/h (4 Bft) 97,87 %
30.06.2019 12:48 32,1 C 36,1 C 37,8 C 59 % 1014,2 hPa 0,0 l/m 2 min 0 min 943 W/m 12,9 km/h (3 Bft) 95,74 %
30.06.2019 12:50 32,1 C 35,6 C 37,8 C 59 % 1014,4 hPa 0,0 l/m 2 min 0 min 961 W/m 12,9 km/h (3 Bft) 97,87 %
30.06.2019 12:52 32,1 C 35,6 C 37,2 C 58 % 1014,5 hPa 0,0 l/m 2 min 0 min 936 W/m 16,1 km/h (3 Bft) 97,87 %
30.06.2019 12:54 32,1 C 36,7 C 37,2 C 59 % 1014,5 hPa 0,0 l/m 2 min 0 min 843 W/m 19,3 km/h (3 Bft) 95,74 %
30.06.2019 12:56 32,2 C 36,1 C 37,2 C 59 % 1014,5 hPa 0,0 l/m 2 min 0 min 821 W/m 12,9 km/h (3 Bft) 97,83 %
30.06.2019 12:58 32,2 C 37,2 C 37,8 C 59 % 1014,5 hPa 0,0 l/m 2 min 0 min 821 W/m 12,9 km/h (3 Bft) 97,87 %
30.06.2019 13:00 32,2 C 37,2 C 37,8 C 58 % 1014,5 hPa 0,0 l/m 2 min 0 min 821 W/m 19,3 km/h (3 Bft) 97,87 %
30.06.2019 13:02 32,3 C 35,6 C 36,7 C 58 % 1014,6 hPa 0,0 l/m 2 min 0 min 639 W/m 16,1 km/h (3 Bft) 97,87 %
30.06.2019 13:04 32,2 C 34,4 C 35,6 C 57 % 1014,6 hPa 0,0 l/m 2 min 0 min 585 W/m 22,5 km/h (4 Bft) 96,00 %
30.06.2019 13:06 32,2 C 35,6 C 36,7 C 58 % 1014,6 hPa 0,0 l/m 2 min 0 min 844 W/m 19,3 km/h (3 Bft) 95,74 %
30.06.2019 13:08 32,2 C 36,1 C 37,2 C 58 % 1014,7 hPa 0,0 l/m 2 min 0 min 971 W/m 12,9 km/h (3 Bft) 95,65 %
30.06.2019 13:10 32,2 C 37,2 C 37,8 C 58 % 1014,7 hPa 0,0 l/m 2 min 0 min 968 W/m 12,9 km/h (3 Bft) 95,74 %
30.06.2019 13:12 32,2 C 36,1 C 37,2 C 58 % 1014,8 hPa 0,0 l/m 2 min 0 min 1008 W/m 16,1 km/h (3 Bft) 93,62 %
30.06.2019 13:14 32,2 C 36,7 C 37,8 C 58 % 1014,7 hPa 0,0 l/m 2 min 0 min 1002 W/m 19,3 km/h (3 Bft) 97,87 %
30.06.2019 13:16 32,2 C 34,4 C 36,1 C 57 % 1014,7 hPa 0,0 l/m 2 min 0 min 758 W/m 22,5 km/h (4 Bft) 97,87 %
30.06.2019 13:18 32,0 C 33,3 C 34,4 C 57 % 1014,7 hPa 0,0 l/m 2 min 0 min 569 W/m 16,1 km/h (3 Bft) 97,83 %
30.06.2019 13:20 31,9 C 34,4 C 35,0 C 58 % 1014,8 hPa 0,0 l/m 2 min 0 min 601 W/m 9,7 km/h (2 Bft) 97,87 %
30.06.2019 13:22 31,9 C 35,0 C 34,4 C 57 % 1014,9 hPa 0,0 l/m 2 min 0 min 601 W/m 12,9 km/h (3 Bft) 97,87 %
30.06.2019 13:24 31,8 C 35,6 C 35,6 C 58 % 1014,8 hPa 0,0 l/m 2 min 0 min 686 W/m 12,9 km/h (3 Bft) 93,62 %
30.06.2019 13:26 31,9 C 35,6 C 36,1 C 58 % 1014,9 hPa 0,0 l/m 2 min 0 min 997 W/m 16,1 km/h (3 Bft) 97,87 %
30.06.2019 13:28 31,9 C 35,6 C 36,1 C 59 % 1014,8 hPa 0,0 l/m 2 min 0 min 1056 W/m 16,1 km/h (3 Bft) 95,74 %
30.06.2019 13:30 31,9 C 35,6 C 36,1 C 58 % 1015,0 hPa 0,0 l/m 2 min 0 min 1037 W/m 12,9 km/h (3 Bft) 97,83 %
30.06.2019 13:32 31,9 C 36,1 C 36,7 C 58 % 1014,9 hPa 0,0 l/m 2 min 0 min 1028 W/m 16,1 km/h (3 Bft) 97,87 %
30.06.2019 13:34 31,9 C 35,6 C 36,7 C 58 % 1014,8 hPa 0,0 l/m 2 min 0 min 1000 W/m 12,9 km/h (3 Bft) 97,87 %
30.06.2019 13:36 31,9 C 35,0 C 35,6 C 58 % 1015,0 hPa 0,0 l/m 2 min 0 min 911 W/m 16,1 km/h (3 Bft) 97,87 %
30.06.2019 13:38 31,8 C 36,1 C 36,7 C 58 % 1014,9 hPa 0,0 l/m 2 min 0 min 832 W/m 12,9 km/h (3 Bft) 95,74 %
30.06.2019 13:40 31,9 C 37,2 C 37,8 C 59 % 1014,8 hPa 0,0 l/m 2 min 0 min 974 W/m 16,1 km/h (3 Bft) 97,87 %
30.06.2019 13:42 31,9 C 37,2 C 37,2 C 59 % 1014,9 hPa 0,0 l/m 2 min 0 min 955 W/m 12,9 km/h (3 Bft) 97,83 %
30.06.2019 13:44 32,0 C 37,2 C 37,2 C 58 % 1014,9 hPa 0,0 l/m 2 min 0 min 922 W/m 12,9 km/h (3 Bft) 97,87 %
30.06.2019 13:46 32,0 C 35,6 C 36,7 C 58 % 1015,0 hPa 0,0 l/m 2 min 0 min 927 W/m 16,1 km/h (3 Bft) 97,87 %
30.06.2019 13:48 31,9 C 35,0 C 36,1 C 57 % 1014,9 hPa 0,0 l/m 2 min 0 min 920 W/m 12,9 km/h (3 Bft) 95,74 %
30.06.2019 13:50 31,9 C 35,0 C 36,1 C 59 % 1014,8 hPa 0,0 l/m 2 min 0 min 974 W/m 16,1 km/h (3 Bft) 95,74 %
30.06.2019 13:52 31,8 C 34,4 C 35,6 C 59 % 1014,8 hPa 0,0 l/m 2 min 0 min 919 W/m 16,1 km/h (3 Bft) 97,87 %
30.06.2019 13:54 31,8 C 34,4 C 36,1 C 59 % 1014,9 hPa 0,0 l/m 2 min 0 min 892 W/m 16,1 km/h (3 Bft) 97,83 %
30.06.2019 13:56 31,7 C 35,0 C 37,2 C 60 % 1014,8 hPa 0,0 l/m 2 min 0 min 913 W/m 16,1 km/h (3 Bft) 95,74 %
30.06.2019 13:58 31,7 C 36,1 C 37,2 C 59 % 1014,9 hPa 0,0 l/m 2 min 0 min 870 W/m 19,3 km/h (3 Bft) 97,87 %
30.06.2019 14:00 31,8 C 35,0 C 37,2 C 58 % 1015,0 hPa 0,0 l/m 2 min 0 min 878 W/m 16,1 km/h (3 Bft) 97,87 %
30.06.2019 14:02 31,7 C 35,0 C 37,2 C 58 % 1014,8 hPa 0,0 l/m 2 min 0 min 983 W/m 9,7 km/h (2 Bft) 97,87 %
30.06.2019 14:04 31,8 C 35,0 C 36,7 C 59 % 1014,8 hPa 0,0 l/m 2 min 0 min 991 W/m 12,9 km/h (3 Bft) 97,87 %
30.06.2019 14:06 31,8 C 35,6 C 37,2 C 60 % 1014,8 hPa 0,0 l/m 2 min 0 min 991 W/m 16,1 km/h (3 Bft) 97,83 %
30.06.2019 14:08 31,8 C 35,6 C 36,7 C 59 % 1014,9 hPa 0,0 l/m 2 min 0 min 892 W/m 12,9 km/h (3 Bft) 97,87 %
30.06.2019 14:10 31,8 C 35,6 C 36,7 C 58 % 1014,9 hPa 0,0 l/m 2 min 0 min 875 W/m 12,9 km/h (3 Bft) 97,87 %
30.06.2019 14:12 31,8 C 35,0 C 36,1 C 59 % 1014,9 hPa 0,0 l/m 2 min 0 min 764 W/m 12,9 km/h (3 Bft) 97,87 %
30.06.2019 14:14 31,8 C 34,4 C 35,0 C 59 % 1014,9 hPa 0,0 l/m 2 min 0 min 695 W/m 12,9 km/h (3 Bft) 97,87 %
30.06.2019 14:16 31,7 C 32,2 C 33,3 C 58 % 1015,0 hPa 0,0 l/m 2 min 0 min 567 W/m 12,9 km/h (3 Bft) 97,87 %
30.06.2019 14:18 31,6 C 33,3 C 34,4 C 59 % 1015,1 hPa 0,0 l/m 2 min 0 min 485 W/m 19,3 km/h (3 Bft) 97,83 %
30.06.2019 14:20 31,6 C 34,4 C 35,6 C 60 % 1015,0 hPa 0,0 l/m 2 min 0 min 816 W/m 16,1 km/h (3 Bft) 97,87 %
30.06.2019 14:22 31,5 C 35,0 C 36,1 C 59 % 1015,0 hPa 0,0 l/m 2 min 0 min 874 W/m 12,9 km/h (3 Bft) 100,00 %
30.06.2019 14:24 31,5 C 35,0 C 36,1 C 59 % 1015,1 hPa 0,0 l/m 2 min 0 min 876 W/m 9,7 km/h (2 Bft) 95,74 %
30.06.2019 14:26 31,4 C 34,4 C 36,7 C 58 % 1015,2 hPa 0,0 l/m 2 min 0 min 892 W/m 9,7 km/h (2 Bft) 95,74 %
30.06.2019 14:28 31,4 C 35,0 C 36,7 C 59 % 1015,1 hPa 0,0 l/m 2 min 0 min 874 W/m 19,3 km/h (3 Bft) 95,65 %
30.06.2019 14:30 31,5 C 35,6 C 37,2 C 60 % 1015,1 hPa 0,0 l/m 2 min 0 min 878 W/m 12,9 km/h (3 Bft) 97,87 %
30.06.2019 14:32 31,5 C 35,6 C 37,2 C 59 % 1015,1 hPa 0,0 l/m 2 min 0 min 869 W/m 12,9 km/h (3 Bft) 97,87 %
30.06.2019 14:34 31,6 C 34,4 C 36,7 C 59 % 1015,2 hPa 0,0 l/m 2 min 0 min 876 W/m 9,7 km/h (2 Bft) 95,74 %
30.06.2019 14:36 31,6 C 35,0 C 36,7 C 59 % 1015,2 hPa 0,0 l/m 2 min 0 min 868 W/m 12,9 km/h (3 Bft) 97,87 %
30.06.2019 14:38 31,6 C 35,0 C 36,7 C 58 % 1015,1 hPa 0,0 l/m 2 min 0 min 873 W/m 9,7 km/h (2 Bft) 97,87 %
30.06.2019 14:40 31,6 C 35,0 C 36,7 C 59 % 1015,0 hPa 0,0 l/m 2 min 0 min 866 W/m 9,7 km/h (2 Bft) 97,83 %
30.06.2019 14:42 31,6 C 33,9 C 36,1 C 58 % 1015,2 hPa 0,0 l/m 2 min 0 min 869 W/m 16,1 km/h (3 Bft) 97,87 %
30.06.2019 14:44 31,6 C 34,4 C 36,1 C 60 % 1015,1 hPa 0,0 l/m 2 min 0 min 856 W/m 12,9 km/h (3 Bft) 95,74 %
30.06.2019 14:46 31,6 C 34,4 C 35,0 C 60 % 1015,1 hPa 0,0 l/m 2 min 0 min 842 W/m 12,9 km/h (3 Bft) 97,87 %
30.06.2019 14:48 31,6 C 35,0 C 34,4 C 60 % 1015,0 hPa 0,0 l/m 2 min 0 min 847 W/m 9,7 km/h (2 Bft) 97,87 %
30.06.2019 14:50 31,6 C 35,0 C 34,4 C 60 % 1015,0 hPa 0,0 l/m 2 min 0 min 857 W/m 12,9 km/h (3 Bft) 97,87 %
30.06.2019 14:52 31,6 C 34,4 C 34,4 C 60 % 1015,0 hPa 0,0 l/m 2 min 0 min 860 W/m 9,7 km/h (2 Bft) 97,83 %
30.06.2019 14:54 31,6 C 33,9 C 35,0 C 59 % 1015,2 hPa 0,0 l/m 2 min 0 min 853 W/m 16,1 km/h (3 Bft) 97,87 %
30.06.2019 14:56 31,6 C 34,4 C 35,0 C 61 % 1015,1 hPa 0,0 l/m 2 min 0 min 847 W/m 9,7 km/h (2 Bft) 97,87 %
30.06.2019 14:58 31,5 C 33,9 C 33,3 C 60 % 1015,2 hPa 0,0 l/m 2 min 0 min 845 W/m 12,9 km/h (3 Bft) 97,87 %
30.06.2019 15:00 31,4 C 33,9 C 32,2 C 59 % 1015,0 hPa 0,0 l/m 2 min 0 min 838 W/m 12,9 km/h (3 Bft) 97,87 %
30.06.2019 15:02 31,4 C 33,9 C 31,7 C 59 % 1015,1 hPa 0,0 l/m 2 min 0 min 843 W/m 19,3 km/h (3 Bft) 95,74 %
30.06.2019 15:04 31,4 C 33,9 C 31,1 C 58 % 1015,1 hPa 0,0 l/m 2 min 0 min 852 W/m 19,3 km/h (3 Bft) 100,00 %
30.06.2019 15:06 31,3 C 33,9 C 31,1 C 59 % 1015,1 hPa 0,0 l/m 2 min 0 min 848 W/m 22,5 km/h (4 Bft) 100,00 %
30.06.2019 15:08 31,3 C 33,9 C 31,1 C 60 % 1015,1 hPa 0,0 l/m 2 min 0 min 843 W/m 16,1 km/h (3 Bft) 100,00 %
30.06.2019 15:10 31,3 C 33,9 C 31,1 C 59 % 1015,2 hPa 0,0 l/m 2 min 0 min 840 W/m 19,3 km/h (3 Bft) 100,00 %
30.06.2019 15:12 31,3 C 34,4 C 30,6 C 59 % 1015,2 hPa 0,0 l/m 2 min 0 min 844 W/m 12,9 km/h (3 Bft) 97,87 %
30.06.2019 15:14 31,3 C 34,4 C 31,1 C 60 % 1015,2 hPa 0,0 l/m 2 min 0 min 859 W/m 12,9 km/h (3 Bft) 97,87 %
30.06.2019 15:16 31,3 C 34,4 C 30,6 C 58 % 1015,2 hPa 0,0 l/m 2 min 0 min 852 W/m 9,7 km/h (2 Bft) 97,83 %
30.06.2019 15:18 31,4 C 34,4 C 30,6 C 58 % 1015,3 hPa 0,0 l/m 2 min 0 min 789 W/m 12,9 km/h (3 Bft) 97,87 %
30.06.2019 15:20 31,4 C 34,4 C 30,6 C 58 % 1015,3 hPa 0,0 l/m 2 min 0 min 828 W/m 16,1 km/h (3 Bft) 97,87 %
30.06.2019 15:22 31,4 C 34,4 C 31,1 C 57 % 1015,3 hPa 0,0 l/m 2 min 0 min 783 W/m 9,7 km/h (2 Bft) 95,74 %
30.06.2019 15:24 31,3 C 33,3 C 31,1 C 57 % 1015,3 hPa 0,0 l/m 2 min 0 min 756 W/m 16,1 km/h (3 Bft) 97,87 %
30.06.2019 15:26 31,3 C 33,3 C 30,6 C 57 % 1015,3 hPa 0,0 l/m 2 min 0 min 854 W/m 12,9 km/h (3 Bft) 97,87 %
30.06.2019 15:28 31,3 C 33,9 C 30,6 C 57 % 1015,2 hPa 0,0 l/m 2 min 0 min 855 W/m 6,4 km/h (2 Bft) 95,65 %
30.06.2019 15:30 31,3 C 33,9 C 30,0 C 58 % 1014,9 hPa 0,0 l/m 2 min 0 min 843 W/m 9,7 km/h (2 Bft) 97,87 %
30.06.2019 15:32 31,4 C 33,9 C 30,6 C 57 % 1015,0 hPa 0,0 l/m 2 min 0 min 818 W/m 9,7 km/h (2 Bft) 97,87 %
30.06.2019 15:34 31,4 C 33,9 C 30,6 C 58 % 1015,0 hPa 0,0 l/m 2 min 0 min 831 W/m 9,7 km/h (2 Bft) 97,87 %
30.06.2019 15:36 31,4 C 33,3 C 30,6 C 59 % 1014,9 hPa 0,0 l/m 2 min 0 min 780 W/m 9,7 km/h (2 Bft) 97,87 %
30.06.2019 15:38 31,4 C 32,2 C 30,6 C 54 % 1015,0 hPa 0,0 l/m 2 min 0 min 774 W/m 19,3 km/h (3 Bft) 97,83 %
30.06.2019 15:40 31,4 C 32,8 C 30,6 C 57 % 1015,2 hPa 0,0 l/m 2 min 0 min 807 W/m 12,9 km/h (3 Bft) 95,74 %
30.06.2019 15:42 31,4 C 32,8 C 30,6 C 56 % 1015,1 hPa 0,0 l/m 2 min 0 min 808 W/m 9,7 km/h (2 Bft) 97,87 %
30.06.2019 15:44 31,4 C 33,3 C 30,0 C 56 % 1015,0 hPa 0,0 l/m 2 min 0 min 765 W/m 12,9 km/h (3 Bft) 97,87 %
30.06.2019 15:46 31,4 C 33,3 C 30,0 C 56 % 1015,0 hPa 0,0 l/m 2 min 0 min 866 W/m 16,1 km/h (3 Bft) 97,87 %
30.06.2019 15:48 31,4 C 32,8 C 30,0 C 56 % 1014,8 hPa 0,0 l/m 2 min 0 min 725 W/m 9,7 km/h (2 Bft) 97,87 %
30.06.2019 15:50 31,4 C 33,3 C 30,0 C 55 % 1014,7 hPa 0,0 l/m 2 min 0 min 740 W/m 9,7 km/h (2 Bft) 97,83 %
30.06.2019 15:52 31,4 C 33,3 C 30,6 C 57 % 1014,7 hPa 0,0 l/m 2 min 0 min 803 W/m 6,4 km/h (2 Bft) 95,74 %
30.06.2019 15:54 31,5 C 33,3 C 30,0 C 57 % 1014,9 hPa 0,0 l/m 2 min 0 min 695 W/m 6,4 km/h (2 Bft) 97,87 %
30.06.2019 15:56 31,6 C 32,8 C 30,0 C 56 % 1014,7 hPa 0,0 l/m 2 min 0 min 668 W/m 6,4 km/h (2 Bft) 97,87 %
30.06.2019 15:58 31,5 C 32,2 C 30,0 C 56 % 1014,7 hPa 0,0 l/m 2 min 0 min 734 W/m 9,7 km/h (2 Bft) 95,74 %
30.06.2019 16:00 31,5 C 32,8 C 30,0 C 56 % 1014,5 hPa 0,0 l/m 2 min 0 min 866 W/m 6,4 km/h (2 Bft) 97,87 %
30.06.2019 16:02 31,5 C 32,8 C 30,0 C 56 % 1014,4 hPa 0,0 l/m 2 min 0 min 847 W/m 6,4 km/h (2 Bft) 97,83 %
30.06.2019 16:04 31,6 C 33,3 C 30,6 C 55 % 1014,4 hPa 0,0 l/m 2 min 0 min 804 W/m 3,2 km/h (1 Bft) 97,87 %
30.06.2019 16:06 31,6 C 32,8 C 30,0 C 56 % 1014,4 hPa 0,0 l/m 2 min 0 min 772 W/m 9,7 km/h (2 Bft) 97,87 %
30.06.2019 16:08 31,6 C 32,8 C 30,0 C 55 % 1014,4 hPa 0,0 l/m 2 min 0 min 729 W/m 9,7 km/h (2 Bft) 97,87 %
30.06.2019 16:10 31,7 C 32,2 C 30,0 C 54 % 1014,4 hPa 0,0 l/m 2 min 0 min 756 W/m 9,7 km/h (2 Bft) 97,87 %
30.06.2019 16:12 31,7 C 32,2 C 30,0 C 57 % 1014,5 hPa 0,0 l/m 2 min 0 min 598 W/m 6,4 km/h (2 Bft) 100,00 %
30.06.2019 16:14 31,7 C 31,7 C 30,0 C 56 % 1014,5 hPa 0,0 l/m 2 min 0 min 567 W/m 6,4 km/h (2 Bft) 100,00 %
30.06.2019 16:16 31,6 C 31,1 C 29,4 C 54 % 1014,5 hPa 0,0 l/m 2 min 0 min 554 W/m 9,7 km/h (2 Bft) 97,87 %
30.06.2019 16:18 31,5 C 31,1 C 30,0 C 56 % 1014,5 hPa 0,0 l/m 2 min 0 min 776 W/m 6,4 km/h (2 Bft) 100,00 %
30.06.2019 16:20 31,5 C 31,1 C 29,4 C 56 % 1014,5 hPa 0,0 l/m 2 min 0 min 856 W/m 9,7 km/h (2 Bft) 100,00 %
30.06.2019 16:22 31,4 C 30,6 C 30,0 C 54 % 1014,6 hPa 0,0 l/m 2 min 0 min 856 W/m 12,9 km/h (3 Bft) 100,00 %
30.06.2019 16:24 31,3 C 31,1 C 30,0 C 54 % 1014,8 hPa 0,0 l/m 2 min 0 min 779 W/m 12,9 km/h (3 Bft) 100,00 %
30.06.2019 16:26 31,2 C 31,1 C 30,6 C 55 % 1014,8 hPa 0,0 l/m 2 min 0 min 783 W/m 6,4 km/h (2 Bft) 97,83 %
30.06.2019 16:28 31,2 C 31,1 C 30,6 C 55 % 1014,8 hPa 0,0 l/m 2 min 0 min 779 W/m 9,7 km/h (2 Bft) 95,74 %
30.06.2019 16:30 31,2 C 30,6 C 30,6 C 54 % 1014,9 hPa 0,0 l/m 2 min 0 min 709 W/m 9,7 km/h (2 Bft) 100,00 %
30.06.2019 16:32 31,2 C 30,0 C 30,6 C 53 % 1015,0 hPa 0,0 l/m 2 min 0 min 443 W/m 9,7 km/h (2 Bft) 100,00 %
30.06.2019 16:34 31,1 C 30,0 C 30,6 C 54 % 1014,9 hPa 0,0 l/m 0 min 0 min 322 W/m 6,4 km/h (2 Bft) 100,00 %
30.06.2019 16:36 31,1 C 30,6 C 30,6 C 55 % 1014,9 hPa 0,0 l/m 2 min 0 min 484 W/m 6,4 km/h (2 Bft) 97,87 %
30.06.2019 16:38 31,1 C 30,6 C 30,0 C 54 % 1015,1 hPa 0,0 l/m 2 min 0 min 491 W/m 12,9 km/h (3 Bft) 97,83 %
30.06.2019 16:40 31,1 C 30,6 C 30,6 C 57 % 1015,0 hPa 0,0 l/m 2 min 0 min 466 W/m 9,7 km/h (2 Bft) 100,00 %
30.06.2019 16:42 31,1 C 31,1 C 30,6 C 57 % 1015,0 hPa 0,0 l/m 2 min 0 min 466 W/m 6,4 km/h (2 Bft) 100,00 %
30.06.2019 16:44 31,1 C 30,6 C 30,0 C 54 % 1015,0 hPa 0,0 l/m 0 min 0 min 332 W/m 12,9 km/h (3 Bft) 97,87 %
30.06.2019 16:46 31,0 C 30,0 C 29,4 C 55 % 1015,1 hPa 0,0 l/m 0 min 0 min 253 W/m 9,7 km/h (2 Bft) 97,87 %
30.06.2019 16:48 30,9 C 29,4 C 28,9 C 54 % 1015,0 hPa 0,0 l/m 0 min 0 min 221 W/m 6,4 km/h (2 Bft) 97,87 %
30.06.2019 16:50 30,8 C 29,4 C 28,9 C 55 % 1014,9 hPa 0,0 l/m 0 min 0 min 273 W/m 3,2 km/h (1 Bft) 97,83 %
30.06.2019 16:52 30,7 C 29,4 C 28,9 C 54 % 1014,9 hPa 0,0 l/m 0 min 0 min 343 W/m 6,4 km/h (2 Bft) 97,87 %
30.06.2019 16:54 30,6 C 30,0 C 28,9 C 54 % 1014,7 hPa 0,0 l/m 2 min 0 min 411 W/m 3,2 km/h (1 Bft) 97,87 %
30.06.2019 16:56 30,6 C 30,6 C 30,0 C 55 % 1014,9 hPa 0,0 l/m 2 min 0 min 546 W/m 12,9 km/h (3 Bft) 97,87 %
30.06.2019 16:58 30,6 C 30,6 C 30,0 C 54 % 1015,0 hPa 0,0 l/m 2 min 0 min 722 W/m 9,7 km/h (2 Bft) 93,62 %
30.06.2019 17:00 30,6 C 31,1 C 30,0 C 56 % 1014,8 hPa 0,0 l/m 2 min 0 min 429 W/m 9,7 km/h (2 Bft) 95,65 %
30.06.2019 17:02 30,6 C 30,6 C 29,4 C 55 % 1014,6 hPa 0,0 l/m 0 min 0 min 330 W/m 6,4 km/h (2 Bft) 97,87 %
30.06.2019 17:04 30,6 C 30,6 C 28,9 C 55 % 1014,7 hPa 0,0 l/m 2 min 0 min 361 W/m 6,4 km/h (2 Bft) 97,87 %
30.06.2019 17:06 30,5 C 30,0 C 28,9 C 55 % 1014,8 hPa 0,0 l/m 2 min 0 min 383 W/m 9,7 km/h (2 Bft) 97,87 %
30.06.2019 17:08 30,4 C 30,0 C 29,4 C 56 % 1014,9 hPa 0,0 l/m 2 min 0 min 406 W/m 6,4 km/h (2 Bft) 97,87 %
30.06.2019 17:10 30,4 C 30,0 C 29,4 C 55 % 1014,9 hPa 0,0 l/m 2 min 0 min 408 W/m 9,7 km/h (2 Bft) 100,00 %
30.06.2019 17:12 30,3 C 30,0 C 29,4 C 55 % 1014,9 hPa 0,0 l/m 2 min 0 min 406 W/m 12,9 km/h (3 Bft) 97,83 %
30.06.2019 17:14 30,3 C 30,0 C 29,4 C 55 % 1014,7 hPa 0,0 l/m 2 min 0 min 406 W/m 9,7 km/h (2 Bft) 97,87 %
30.06.2019 17:16 30,2 C 29,4 C 28,9 C 55 % 1014,9 hPa 0,0 l/m 0 min 0 min 313 W/m 9,7 km/h (2 Bft) 95,74 %
30.06.2019 17:18 30,2 C 29,4 C 28,9 C 56 % 1014,8 hPa 0,0 l/m 2 min 0 min 330 W/m 6,4 km/h (2 Bft) 97,87 %
30.06.2019 17:20 30,2 C 28,9 C 28,9 C 54 % 1014,6 hPa 0,0 l/m 2 min 0 min 464 W/m 6,4 km/h (2 Bft) 97,87 %
30.06.2019 17:22 30,1 C 28,9 C 28,9 C 54 % 1014,4 hPa 0,0 l/m 0 min 0 min 226 W/m 6,4 km/h (2 Bft) 95,74 %
30.06.2019 17:24 30,0 C 28,9 C 28,3 C 55 % 1014,4 hPa 0,0 l/m 0 min 0 min 222 W/m 16,1 km/h (3 Bft) 95,65 %
30.06.2019 17:26 29,9 C 28,9 C 28,3 C 55 % 1014,5 hPa 0,0 l/m 0 min 0 min 234 W/m 9,7 km/h (2 Bft) 91,49 %
30.06.2019 17:28 29,8 C 28,3 C 28,3 C 55 % 1014,9 hPa 0,0 l/m 0 min 0 min 218 W/m 9,7 km/h (2 Bft) 95,74 %
30.06.2019 17:30 29,8 C 28,3 C 28,3 C 55 % 1015,1 hPa 0,0 l/m 0 min 0 min 185 W/m 9,7 km/h (2 Bft) 97,87 %
30.06.2019 17:32 29,7 C 28,3 C 28,3 C 56 % 1015,0 hPa 0,0 l/m 0 min 0 min 160 W/m 6,4 km/h (2 Bft) 97,87 %
30.06.2019 17:34 29,6 C 28,3 C 27,8 C 54 % 1014,6 hPa 0,0 l/m 0 min 0 min 151 W/m 16,1 km/h (3 Bft) 97,83 %
30.06.2019 17:36 29,4 C 28,3 C 27,8 C 55 % 1014,8 hPa 0,0 l/m 0 min 0 min 156 W/m 6,4 km/h (2 Bft) 100,00 %
30.06.2019 17:38 29,4 C 28,3 C 27,8 C 56 % 1015,0 hPa 0,0 l/m 0 min 0 min 197 W/m 9,7 km/h (2 Bft) 97,87 %
30.06.2019 17:40 29,3 C 28,3 C 27,8 C 56 % 1014,9 hPa 0,0 l/m 0 min 0 min 275 W/m 12,9 km/h (3 Bft) 97,87 %
30.06.2019 17:42 29,3 C 28,9 C 27,8 C 57 % 1014,8 hPa 0,0 l/m 2 min 0 min 337 W/m 6,4 km/h (2 Bft) 97,87 %
30.06.2019 17:44 29,3 C 29,4 C 28,3 C 57 % 1014,8 hPa 0,0 l/m 2 min 0 min 452 W/m 12,9 km/h (3 Bft) 97,87 %
30.06.2019 17:46 29,3 C 30,0 C 28,9 C 56 % 1015,0 hPa 0,0 l/m 2 min 0 min 564 W/m 12,9 km/h (3 Bft) 97,83 %
30.06.2019 17:48 29,3 C 30,0 C 28,9 C 55 % 1014,9 hPa 0,0 l/m 2 min 0 min 644 W/m 22,5 km/h (4 Bft) 97,87 %
30.06.2019 17:50 29,4 C 29,4 C 28,9 C 55 % 1015,2 hPa 0,0 l/m 2 min 0 min 548 W/m 19,3 km/h (3 Bft) 100,00 %
30.06.2019 17:52 29,4 C 29,4 C 28,9 C 54 % 1015,0 hPa 0,0 l/m 2 min 0 min 513 W/m 12,9 km/h (3 Bft) 97,87 %
30.06.2019 17:54 29,4 C 29,4 C 28,9 C 54 % 1014,9 hPa 0,0 l/m 2 min 0 min 520 W/m 9,7 km/h (2 Bft) 97,87 %
30.06.2019 17:56 29,4 C 29,4 C 28,9 C 55 % 1014,9 hPa 0,0 l/m 2 min 0 min 560 W/m 9,7 km/h (2 Bft) 97,87 %
30.06.2019 17:58 29,5 C 29,4 C 29,4 C 55 % 1014,8 hPa 0,0 l/m 2 min 0 min 564 W/m 9,7 km/h (2 Bft) 97,83 %
30.06.2019 18:00 29,6 C 30,0 C 29,4 C 56 % 1014,8 hPa 0,0 l/m 2 min 0 min 545 W/m 6,4 km/h (2 Bft) 95,74 %
30.06.2019 18:02 29,7 C 30,6 C 29,4 C 56 % 1014,6 hPa 0,0 l/m 2 min 0 min 593 W/m 9,7 km/h (2 Bft) 95,74 %
30.06.2019 18:04 29,8 C 30,6 C 30,0 C 57 % 1014,6 hPa 0,0 l/m 2 min 0 min 512 W/m 6,4 km/h (2 Bft) 97,87 %
30.06.2019 18:08 29,9 C 30,6 C 30,0 C 57 % 1014,7 hPa 0,0 l/m 4 min 0 min 397 W/m 19,3 km/h (3 Bft) 96,81 %
30.06.2019 18:10 29,9 C 30,0 C 29,4 C 56 % 1014,9 hPa 0,0 l/m 2 min 0 min 400 W/m 12,9 km/h (3 Bft) 95,65 %
30.06.2019 18:12 29,9 C 29,4 C 28,9 C 56 % 1015,0 hPa 0,0 l/m 2 min 0 min 406 W/m 9,7 km/h (2 Bft) 95,74 %
30.06.2019 18:14 29,9 C 29,4 C 28,9 C 54 % 1014,9 hPa 0,0 l/m 2 min 0 min 426 W/m 19,3 km/h (3 Bft) 93,62 %
30.06.2019 18:16 29,9 C 30,0 C 28,3 C 55 % 1015,0 hPa 0,0 l/m 2 min 0 min 521 W/m 9,7 km/h (2 Bft) 95,74 %
30.06.2019 18:18 29,9 C 30,0 C 28,3 C 55 % 1014,9 hPa 0,0 l/m 2 min 0 min 504 W/m 6,4 km/h (2 Bft) 95,74 %
30.06.2019 18:20 29,9 C 30,0 C 28,3 C 54 % 1014,9 hPa 0,0 l/m 2 min 0 min 507 W/m 16,1 km/h (3 Bft) 93,62 %
30.06.2019 18:22 29,9 C 30,6 C 28,9 C 54 % 1014,8 hPa 0,0 l/m 2 min 0 min 499 W/m 9,7 km/h (2 Bft) 95,65 %
30.06.2019 18:24 30,1 C 30,6 C 28,9 C 54 % 1014,9 hPa 0,0 l/m 2 min 0 min 519 W/m 9,7 km/h (2 Bft) 97,87 %
30.06.2019 18:26 30,1 C 30,6 C 28,9 C 54 % 1015,0 hPa 0,0 l/m 2 min 0 min 516 W/m 9,7 km/h (2 Bft) 95,74 %
30.06.2019 18:28 30,1 C 30,0 C 28,9 C 53 % 1015,0 hPa 0,0 l/m 2 min 0 min 324 W/m 9,7 km/h (2 Bft) 97,87 %
30.06.2019 18:30 30,1 C 29,4 C 28,3 C 53 % 1015,1 hPa 0,0 l/m 0 min 0 min 220 W/m 6,4 km/h (2 Bft) 97,87 %
30.06.2019 18:32 30,0 C 29,4 C 28,3 C 53 % 1015,0 hPa 0,0 l/m 0 min 0 min 224 W/m 6,4 km/h (2 Bft) 91,43 %
30.06.2019 18:34 29,9 C 28,9 C 27,8 C 53 % 1014,9 hPa 0,0 l/m 2 min 0 min 366 W/m 16,1 km/h (3 Bft) 97,87 %
30.06.2019 18:36 29,9 C 28,9 C 27,8 C 52 % 1014,9 hPa 0,0 l/m 2 min 0 min 348 W/m 16,1 km/h (3 Bft) 97,87 %
30.06.2019 18:38 29,9 C 28,9 C 27,8 C 54 % 1014,8 hPa 0,0 l/m 0 min 0 min 201 W/m 9,7 km/h (2 Bft) 93,48 %
30.06.2019 18:40 29,8 C 28,3 C 27,2 C 53 % 1015,1 hPa 0,0 l/m 0 min 0 min 163 W/m 6,4 km/h (2 Bft) 97,87 %
30.06.2019 18:42 29,8 C 28,3 C 27,2 C 53 % 1015,0 hPa 0,0 l/m 0 min 0 min 210 W/m 12,9 km/h (3 Bft) 97,87 %
30.06.2019 18:44 29,8 C 28,3 C 27,8 C 53 % 1015,0 hPa 0,0 l/m 2 min 0 min 437 W/m 6,4 km/h (2 Bft) 97,87 %
30.06.2019 18:46 29,7 C 28,9 C 27,8 C 53 % 1015,0 hPa 0,0 l/m 2 min 0 min 432 W/m 9,7 km/h (2 Bft) 95,74 %
30.06.2019 18:48 29,7 C 28,9 C 27,8 C 53 % 1015,1 hPa 0,0 l/m 2 min 0 min 399 W/m 12,9 km/h (3 Bft) 97,83 %
30.06.2019 18:50 29,7 C 28,9 C 28,3 C 54 % 1015,0 hPa 0,0 l/m 2 min 0 min 395 W/m 22,5 km/h (4 Bft) 95,74 %
30.06.2019 18:52 29,6 C 28,9 C 27,8 C 54 % 1014,9 hPa 0,0 l/m 2 min 0 min 354 W/m 9,7 km/h (2 Bft) 100,00 %
30.06.2019 18:54 29,6 C 28,9 C 27,8 C 53 % 1014,9 hPa 0,0 l/m 2 min 0 min 348 W/m 9,7 km/h (2 Bft) 97,87 %
30.06.2019 18:56 29,5 C 28,9 C 27,8 C 53 % 1014,8 hPa 0,0 l/m 2 min 0 min 343 W/m 16,1 km/h (3 Bft) 100,00 %
30.06.2019 18:58 29,4 C 28,3 C 27,8 C 53 % 1014,9 hPa 0,0 l/m 2 min 0 min 335 W/m 12,9 km/h (3 Bft) 100,00 %
30.06.2019 19:00 29,4 C 28,3 C 27,8 C 55 % 1014,9 hPa 0,0 l/m 2 min 0 min 280 W/m 6,4 km/h (2 Bft) 100,00 %
30.06.2019 19:02 29,3 C 27,8 C 27,2 C 54 % 1014,9 hPa 0,0 l/m 0 min 0 min 160 W/m 12,9 km/h (3 Bft) 100,00 %
30.06.2019 19:04 29,2 C 27,2 C 27,2 C 54 % 1015,1 hPa 0,0 l/m 0 min 0 min 92 W/m 12,9 km/h (3 Bft) 100,00 %
30.06.2019 19:06 29,1 C 27,2 C 26,7 C 54 % 1015,1 hPa 0,0 l/m 0 min 0 min 134 W/m 6,4 km/h (2 Bft) 100,00 %
30.06.2019 19:08 29,1 C 27,2 C 26,7 C 55 % 1015,2 hPa 0,0 l/m 0 min 0 min 177 W/m 6,4 km/h (2 Bft) 97,87 %
30.06.2019 19:10 29,0 C 27,2 C 26,1 C 54 % 1015,1 hPa 0,0 l/m 2 min 0 min 289 W/m 9,7 km/h (2 Bft) 97,87 %
30.06.2019 19:12 28,9 C 27,2 C 26,1 C 56 % 1015,3 hPa 0,0 l/m 2 min 0 min 305 W/m 12,9 km/h (3 Bft) 100,00 %
30.06.2019 19:14 28,9 C 27,2 C 26,1 C 55 % 1015,2 hPa 0,0 l/m 0 min 0 min 171 W/m 6,4 km/h (2 Bft) 100,00 %
30.06.2019 19:16 28,8 C 27,2 C 26,1 C 54 % 1015,2 hPa 0,0 l/m 0 min 0 min 133 W/m 12,9 km/h (3 Bft) 93,62 %
30.06.2019 19:18 28,7 C 27,2 C 26,1 C 56 % 1015,1 hPa 0,0 l/m 0 min 0 min 124 W/m 6,4 km/h (2 Bft) 100,00 %
30.06.2019 19:20 28,7 C 26,7 C 25,6 C 56 % 1015,1 hPa 0,0 l/m 0 min 0 min 125 W/m 9,7 km/h (2 Bft) 100,00 %
30.06.2019 19:22 28,6 C 26,7 C 25,6 C 54 % 1015,2 hPa 0,0 l/m 0 min 0 min 121 W/m 12,9 km/h (3 Bft) 97,87 %
30.06.2019 19:24 28,5 C 26,7 C 25,6 C 56 % 1015,1 hPa 0,0 l/m 0 min 0 min 125 W/m 6,4 km/h (2 Bft) 97,83 %
30.06.2019 19:26 28,4 C 26,7 C 25,6 C 55 % 1015,1 hPa 0,0 l/m 0 min 0 min 151 W/m 9,7 km/h (2 Bft) 97,87 %
30.06.2019 19:28 28,3 C 26,7 C 25,6 C 56 % 1015,1 hPa 0,0 l/m 2 min 0 min 197 W/m 9,7 km/h (2 Bft) 100,00 %
30.06.2019 19:30 28,2 C 26,7 C 25,6 C 55 % 1015,1 hPa 0,0 l/m 0 min 0 min 145 W/m 32,2 km/h (5 Bft) 100,00 %
30.06.2019 19:32 28,2 C 27,2 C 26,1 C 56 % 1015,1 hPa 0,0 l/m 2 min 0 min 297 W/m 12,9 km/h (3 Bft) 95,74 %
30.06.2019 19:34 28,1 C 27,2 C 25,6 C 56 % 1015,1 hPa 0,0 l/m 2 min 0 min 248 W/m 16,1 km/h (3 Bft) 97,87 %
30.06.2019 19:36 28,1 C 27,2 C 26,1 C 57 % 1015,3 hPa 0,0 l/m 2 min 0 min 163 W/m 12,9 km/h (3 Bft) 100,00 %
30.06.2019 19:38 28,0 C 27,2 C 26,1 C 57 % 1015,3 hPa 0,0 l/m 0 min 0 min 149 W/m 22,5 km/h (4 Bft) 95,74 %
30.06.2019 19:40 27,9 C 27,2 C 26,1 C 57 % 1015,2 hPa 0,0 l/m 0 min 0 min 147 W/m 9,7 km/h (2 Bft) 97,87 %
30.06.2019 19:42 27,9 C 27,2 C 26,1 C 56 % 1015,2 hPa 0,0 l/m 2 min 0 min 204 W/m 6,4 km/h (2 Bft) 97,87 %
30.06.2019 19:44 27,8 C 26,7 C 25,6 C 57 % 1015,1 hPa 0,0 l/m 2 min 0 min 219 W/m 12,9 km/h (3 Bft) 97,87 %
30.06.2019 19:46 27,7 C 26,7 C 25,6 C 57 % 1015,0 hPa 0,0 l/m 2 min 0 min 221 W/m 9,7 km/h (2 Bft) 97,87 %
30.06.2019 19:48 27,7 C 26,7 C 25,6 C 57 % 1015,0 hPa 0,0 l/m 2 min 0 min 222 W/m 12,9 km/h (3 Bft) 97,83 %
30.06.2019 19:50 27,6 C 26,7 C 25,6 C 57 % 1014,9 hPa 0,0 l/m 2 min 0 min 224 W/m 9,7 km/h (2 Bft) 95,74 %
30.06.2019 19:52 27,6 C 26,7 C 25,6 C 57 % 1015,0 hPa 0,0 l/m 2 min 0 min 173 W/m 9,7 km/h (2 Bft) 95,74 %
30.06.2019 19:53 27,6 C 26,1 C 25,6 C 57 % 1015,1 hPa 0,0 l/m 0 min 0 min 123 W/m 9,7 km/h (2 Bft) 95,74 %
30.06.2019 19:56 27,5 C 26,1 C 25,6 C 58 % 1015,2 hPa 0,0 l/m 0 min 0 min 101 W/m 6,4 km/h (2 Bft) 98,28 %
30.06.2019 19:58 27,4 C 26,1 C 25,6 C 58 % 1015,1 hPa 0,0 l/m 0 min 0 min 88 W/m 12,9 km/h (3 Bft) 97,87 %
30.06.2019 20:00 27,4 C 26,1 C 25,0 C 58 % 1014,9 hPa 0,0 l/m 0 min 0 min 77 W/m 16,1 km/h (3 Bft) 95,74 %
30.06.2019 20:02 27,3 C 25,6 C 24,4 C 59 % 1014,9 hPa 0,0 l/m 0 min 0 min 67 W/m 19,3 km/h (3 Bft) 97,87 %
30.06.2019 20:04 27,3 C 25,6 C 24,4 C 58 % 1015,0 hPa 0,0 l/m 0 min 0 min 61 W/m 9,7 km/h (2 Bft) 95,74 %
30.06.2019 20:06 27,2 C 25,0 C 24,4 C 57 % 1015,2 hPa 0,0 l/m 0 min 0 min 70 W/m 16,1 km/h (3 Bft) 97,83 %
30.06.2019 20:08 27,1 C 25,0 C 24,4 C 58 % 1015,2 hPa 0,0 l/m 0 min 0 min 88 W/m 9,7 km/h (2 Bft) 97,87 %
30.06.2019 20:10 26,9 C 25,0 C 24,4 C 58 % 1015,2 hPa 0,0 l/m 0 min 0 min 94 W/m 9,7 km/h (2 Bft) 97,87 %
30.06.2019 20:12 26,8 C 25,6 C 24,4 C 58 % 1015,1 hPa 0,0 l/m 0 min 0 min 93 W/m 6,4 km/h (2 Bft) 95,74 %
30.06.2019 20:14 26,8 C 25,0 C 24,4 C 59 % 1015,1 hPa 0,0 l/m 0 min 0 min 87 W/m 16,1 km/h (3 Bft) 97,87 %
30.06.2019 20:16 26,7 C 25,0 C 24,4 C 58 % 1015,2 hPa 0,0 l/m 0 min 0 min 99 W/m 16,1 km/h (3 Bft) 95,74 %
30.06.2019 20:18 26,6 C 25,0 C 24,4 C 58 % 1015,3 hPa 0,0 l/m 2 min 0 min 114 W/m 12,9 km/h (3 Bft) 97,83 %
30.06.2019 20:20 26,6 C 25,6 C 24,4 C 58 % 1015,4 hPa 0,0 l/m 2 min 0 min 121 W/m 9,7 km/h (2 Bft) 97,87 %
30.06.2019 20:22 26,5 C 25,6 C 24,4 C 59 % 1015,4 hPa 0,0 l/m 2 min 0 min 121 W/m 12,9 km/h (3 Bft) 95,74 %
30.06.2019 20:24 26,4 C 25,6 C 24,4 C 58 % 1015,5 hPa 0,0 l/m 2 min 0 min 116 W/m 12,9 km/h (3 Bft) 97,87 %
30.06.2019 20:26 26,3 C 25,6 C 24,4 C 59 % 1015,6 hPa 0,0 l/m 2 min 0 min 112 W/m 9,7 km/h (2 Bft) 97,87 %
30.06.2019 20:28 26,3 C 25,0 C 24,4 C 58 % 1015,5 hPa 0,0 l/m 2 min 0 min 116 W/m 16,1 km/h (3 Bft) 97,87 %
30.06.2019 20:30 26,3 C 25,0 C 24,4 C 58 % 1015,5 hPa 0,0 l/m 2 min 0 min 113 W/m 12,9 km/h (3 Bft) 93,48 %
30.06.2019 20:32 26,2 C 25,0 C 24,4 C 59 % 1015,5 hPa 0,0 l/m 2 min 0 min 105 W/m 19,3 km/h (3 Bft) 97,87 %
30.06.2019 20:34 26,2 C 25,0 C 23,9 C 60 % 1015,5 hPa 0,0 l/m 2 min 0 min 90 W/m 9,7 km/h (2 Bft) 93,62 %
30.06.2019 20:36 26,1 C 25,0 C 23,9 C 60 % 1015,5 hPa 0,0 l/m 2 min 0 min 90 W/m 6,4 km/h (2 Bft) 100,00 %
30.06.2019 20:38 26,1 C 25,0 C 23,9 C 60 % 1015,4 hPa 0,0 l/m 2 min 0 min 86 W/m 9,7 km/h (2 Bft) 100,00 %
30.06.2019 20:40 26,0 C 25,0 C 23,9 C 59 % 1015,4 hPa 0,0 l/m 2 min 0 min 83 W/m 16,1 km/h (3 Bft) 97,87 %
30.06.2019 20:42 25,9 C 25,0 C 23,9 C 59 % 1015,3 hPa 0,0 l/m 0 min 0 min 75 W/m 6,4 km/h (2 Bft) 97,83 %
30.06.2019 20:44 25,9 C 24,4 C 23,9 C 59 % 1015,3 hPa 0,0 l/m 2 min 0 min 82 W/m 16,1 km/h (3 Bft) 97,87 %
30.06.2019 20:46 25,8 C 24,4 C 23,9 C 59 % 1015,4 hPa 0,0 l/m 2 min 0 min 91 W/m 9,7 km/h (2 Bft) 97,87 %
30.06.2019 20:48 25,8 C 24,4 C 23,3 C 59 % 1015,3 hPa 0,0 l/m 2 min 0 min 97 W/m 22,5 km/h (4 Bft) 97,87 %
30.06.2019 20:50 25,7 C 25,0 C 23,9 C 60 % 1015,3 hPa 0,0 l/m 2 min 0 min 107 W/m 6,4 km/h (2 Bft) 97,87 %
30.06.2019 20:52 25,7 C 25,0 C 23,9 C 60 % 1015,4 hPa 0,0 l/m 2 min 0 min 113 W/m 9,7 km/h (2 Bft) 95,74 %
30.06.2019 20:54 25,7 C 25,0 C 23,9 C 60 % 1015,5 hPa 0,0 l/m 2 min 0 min 101 W/m 6,4 km/h (2 Bft) 93,48 %
30.06.2019 20:56 25,6 C 25,0 C 23,9 C 59 % 1015,4 hPa 0,0 l/m 2 min 0 min 84 W/m 19,3 km/h (3 Bft) 95,74 %
30.06.2019 20:58 25,6 C 24,4 C 23,9 C 58 % 1015,6 hPa 0,0 l/m 2 min 0 min 74 W/m 9,7 km/h (2 Bft) 95,74 %
30.06.2019 21:00 25,6 C 24,4 C 23,9 C 58 % 1015,5 hPa 0,0 l/m 2 min 0 min 64 W/m 16,1 km/h (3 Bft) 95,74 %
30.06.2019 21:02 25,5 C 24,4 C 23,3 C 58 % 1015,5 hPa 0,0 l/m 2 min 0 min 57 W/m 9,7 km/h (2 Bft) 95,74 %
30.06.2019 21:04 25,4 C 23,9 C 23,3 C 57 % 1015,4 hPa 0,0 l/m 0 min 0 min 48 W/m 9,7 km/h (2 Bft) 95,74 %
30.06.2019 21:06 25,3 C 23,9 C 23,3 C 56 % 1015,5 hPa 0,0 l/m 0 min 0 min 46 W/m 12,9 km/h (3 Bft) 95,65 %
30.06.2019 21:08 25,3 C 23,9 C 23,3 C 55 % 1015,5 hPa 0,0 l/m 0 min 0 min 44 W/m 9,7 km/h (2 Bft) 95,74 %
30.06.2019 21:10 25,2 C 23,9 C 22,8 C 56 % 1015,4 hPa 0,0 l/m 2 min 0 min 42 W/m 6,4 km/h (2 Bft) 93,62 %
30.06.2019 21:12 25,2 C 23,3 C 22,8 C 56 % 1015,5 hPa 0,0 l/m 0 min 0 min 39 W/m 6,4 km/h (2 Bft) 95,74 %
30.06.2019 21:14 25,1 C 23,3 C 22,2 C 56 % 1015,4 hPa 0,0 l/m 2 min 0 min 40 W/m 6,4 km/h (2 Bft) 95,74 %
30.06.2019 21:16 25,1 C 23,3 C 22,2 C 56 % 1015,4 hPa 0,0 l/m 2 min 0 min 40 W/m 6,4 km/h (2 Bft) 95,74 %
30.06.2019 21:18 25,1 C 23,3 C 22,2 C 56 % 1015,4 hPa 0,0 l/m 2 min 0 min 39 W/m 12,9 km/h (3 Bft) 97,83 %
30.06.2019 21:20 25,1 C 22,8 C 22,2 C 57 % 1015,4 hPa 0,0 l/m 2 min 0 min 35 W/m 3,2 km/h (1 Bft) 95,74 %
30.06.2019 21:22 25,0 C 22,8 C 21,7 C 57 % 1015,5 hPa 0,0 l/m 2 min 0 min 35 W/m 3,2 km/h (1 Bft) 95,74 %
30.06.2019 21:24 24,9 C 22,8 C 21,7 C 58 % 1015,5 hPa 0,0 l/m 2 min 0 min 33 W/m 6,4 km/h (2 Bft) 97,87 %
30.06.2019 21:26 24,8 C 22,8 C 21,7 C 58 % 1015,5 hPa 0,0 l/m 2 min 0 min 28 W/m 9,7 km/h (2 Bft) 95,74 %
30.06.2019 21:28 24,8 C 22,8 C 21,7 C 59 % 1015,5 hPa 0,0 l/m 2 min 0 min 22 W/m 6,4 km/h (2 Bft) 97,83 %
30.06.2019 21:30 24,7 C 22,2 C 21,1 C 59 % 1015,6 hPa 0,0 l/m 0 min 0 min 19 W/m 6,4 km/h (2 Bft) 97,87 %
30.06.2019 21:32 24,6 C 22,2 C 21,1 C 59 % 1015,6 hPa 0,0 l/m 0 min 0 min 16 W/m 9,7 km/h (2 Bft) 95,74 %
30.06.2019 21:34 24,5 C 22,2 C 21,1 C 60 % 1015,6 hPa 0,0 l/m 0 min 0 min 14 W/m 6,4 km/h (2 Bft) 95,74 %
30.06.2019 21:36 24,4 C 21,7 C 21,1 C 60 % 1015,6 hPa 0,0 l/m 0 min 0 min 12 W/m 6,4 km/h (2 Bft) 94,29 %
30.06.2019 21:38 24,3 C 21,7 C 20,6 C 61 % 1015,7 hPa 0,0 l/m 0 min 0 min 11 W/m 3,2 km/h (1 Bft) 98,31 %
30.06.2019 21:40 24,2 C 21,7 C 20,6 C 61 % 1015,6 hPa 0,0 l/m 0 min 0 min 9 W/m 3,2 km/h (1 Bft) 97,83 %
30.06.2019 21:42 24,1 C 21,7 C 20,6 C 60 % 1015,6 hPa 0,0 l/m 0 min 0 min 8 W/m 9,7 km/h (2 Bft) 97,87 %
30.06.2019 21:44 24,0 C 21,1 C 20,6 C 60 % 1015,7 hPa 0,0 l/m 0 min 0 min 7 W/m 3,2 km/h (1 Bft) 95,74 %
30.06.2019 21:46 23,9 C 21,1 C 20,6 C 61 % 1015,7 hPa 0,0 l/m 0 min 0 min 7 W/m 3,2 km/h (1 Bft) 97,87 %
30.06.2019 21:48 23,8 C 21,1 C 20,6 C 61 % 1015,8 hPa 0,0 l/m 0 min 0 min 6 W/m 3,2 km/h (1 Bft) 100,00 %
30.06.2019 21:50 23,7 C 21,1 C 20,6 C 62 % 1015,8 hPa 0,0 l/m 0 min 0 min 5 W/m 6,4 km/h (2 Bft) 95,74 %
30.06.2019 21:52 23,7 C 21,1 C 20,6 C 61 % 1015,8 hPa 0,0 l/m 0 min 0 min 4 W/m 3,2 km/h (1 Bft) 100,00 %
30.06.2019 21:54 23,6 C 21,1 C 20,0 C 62 % 1015,8 hPa 0,0 l/m 0 min 0 min 0 W/m 6,4 km/h (2 Bft) 100,00 %
30.06.2019 21:56 23,5 C 21,1 C 20,0 C 62 % 1015,8 hPa 0,0 l/m 0 min 0 min 0 W/m 9,7 km/h (2 Bft) 100,00 %
30.06.2019 21:58 23,4 C 21,1 C 20,0 C 62 % 1015,8 hPa 0,0 l/m 0 min 0 min 0 W/m 0,0 km/h (0 Bft) 100,00 %
30.06.2019 22:00 23,4 C 20,6 C 20,0 C 63 % 1015,8 hPa 0,0 l/m 0 min 0 min 0 W/m 3,2 km/h (1 Bft) 97,87 %
30.06.2019 22:02 23,3 C 20,6 C 20,0 C 62 % 1015,9 hPa 0,0 l/m 0 min 0 min 0 W/m 3,2 km/h (1 Bft) 97,87 %
30.06.2019 22:04 23,2 C 20,6 C 20,0 C 62 % 1015,9 hPa 0,0 l/m 0 min 0 min 0 W/m 3,2 km/h (1 Bft) 100,00 %
30.06.2019 22:06 23,2 C 20,6 C 20,0 C 61 % 1016,0 hPa 0,0 l/m 0 min 0 min 0 W/m 3,2 km/h (1 Bft) 97,87 %
30.06.2019 22:08 23,1 C 20,6 C 20,0 C 62 % 1016,0 hPa 0,0 l/m 0 min 0 min 0 W/m 6,4 km/h (2 Bft) 100,00 %
30.06.2019 22:10 23,0 C 20,6 C 20,0 C 63 % 1016,1 hPa 0,0 l/m 0 min 0 min 0 W/m 3,2 km/h (1 Bft) 100,00 %
30.06.2019 22:12 22,9 C 20,6 C 20,0 C 62 % 1016,1 hPa 0,0 l/m 0 min 0 min 0 W/m 6,4 km/h (2 Bft) 100,00 %
30.06.2019 22:14 22,8 C 20,6 C 20,0 C 62 % 1016,1 hPa 0,0 l/m 0 min 0 min 0 W/m 9,7 km/h (2 Bft) 100,00 %
30.06.2019 22:16 22,8 C 20,6 C 20,0 C 62 % 1016,0 hPa 0,0 l/m 0 min 0 min 0 W/m 3,2 km/h (1 Bft) 100,00 %
30.06.2019 22:18 22,7 C 20,6 C 20,0 C 62 % 1016,0 hPa 0,0 l/m 0 min 0 min 0 W/m 3,2 km/h (1 Bft) 100,00 %
30.06.2019 22:20 22,7 C 20,6 C 20,0 C 62 % 1016,1 hPa 0,0 l/m 0 min 0 min 0 W/m 3,2 km/h (1 Bft) 100,00 %
30.06.2019 22:22 22,6 C 20,6 C 20,0 C 63 % 1016,0 hPa 0,0 l/m 0 min 0 min 0 W/m 3,2 km/h (1 Bft) 100,00 %
30.06.2019 22:24 22,6 C 20,6 C 20,0 C 62 % 1016,0 hPa 0,0 l/m 0 min 0 min 0 W/m 9,7 km/h (2 Bft) 100,00 %
30.06.2019 22:26 22,5 C 20,6 C 20,0 C 63 % 1016,1 hPa 0,0 l/m 0 min 0 min 0 W/m 3,2 km/h (1 Bft) 100,00 %
30.06.2019 22:28 22,4 C 20,6 C 20,0 C 62 % 1016,1 hPa 0,0 l/m 0 min 0 min 0 W/m 3,2 km/h (1 Bft) 97,87 %
30.06.2019 22:30 22,4 C 20,6 C 20,0 C 63 % 1016,0 hPa 0,0 l/m 0 min 0 min 0 W/m 3,2 km/h (1 Bft) 100,00 %
30.06.2019 22:32 22,4 C 20,6 C 20,0 C 63 % 1016,0 hPa 0,0 l/m 0 min 0 min 0 W/m 3,2 km/h (1 Bft) 95,74 %
30.06.2019 22:34 22,3 C 20,6 C 20,0 C 64 % 1016,1 hPa 0,0 l/m 0 min 0 min 0 W/m 6,4 km/h (2 Bft) 100,00 %
30.06.2019 22:36 22,3 C 20,0 C 20,0 C 64 % 1016,1 hPa 0,0 l/m 0 min 0 min 0 W/m 3,2 km/h (1 Bft) 97,87 %
30.06.2019 22:38 22,2 C 20,0 C 20,0 C 63 % 1016,1 hPa 0,0 l/m 0 min 0 min 0 W/m 3,2 km/h (1 Bft) 100,00 %
30.06.2019 22:40 22,2 C 20,0 C 19,4 C 63 % 1016,1 hPa 0,0 l/m 0 min 0 min 0 W/m 0,0 km/h (0 Bft) 100,00 %
30.06.2019 22:42 22,2 C 20,0 C 19,4 C 64 % 1016,1 hPa 0,0 l/m 0 min 0 min 0 W/m 0,0 km/h (0 Bft) 97,87 %
30.06.2019 22:44 22,1 C 20,0 C 19,4 C 63 % 1016,0 hPa 0,0 l/m 0 min 0 min 0 W/m 0,0 km/h (0 Bft) 93,62 %
30.06.2019 22:46 22,1 C 20,0 C 19,4 C 64 % 1016,0 hPa 0,0 l/m 0 min 0 min 0 W/m 0,0 km/h (0 Bft) 97,87 %
30.06.2019 22:48 22,1 C 20,0 C 19,4 C 63 % 1016,0 hPa 0,0 l/m 0 min 0 min 0 W/m 3,2 km/h (1 Bft) 97,87 %
30.06.2019 22:50 22,0 C 20,0 C 19,4 C 63 % 1015,9 hPa 0,0 l/m 0 min 0 min 0 W/m 0,0 km/h (0 Bft) 97,83 %
30.06.2019 22:52 21,9 C 20,0 C 19,4 C 63 % 1015,9 hPa 0,0 l/m 0 min 0 min 0 W/m 3,2 km/h (1 Bft) 95,74 %
30.06.2019 22:54 21,9 C 19,4 C 19,4 C 64 % 1016,0 hPa 0,0 l/m 0 min 0 min 0 W/m 0,0 km/h (0 Bft) 95,74 %
30.06.2019 22:56 21,9 C 19,4 C 19,4 C 64 % 1016,0 hPa 0,0 l/m 0 min 0 min 0 W/m 6,4 km/h (2 Bft) 93,62 %
30.06.2019 22:58 21,8 C 19,4 C 19,4 C 64 % 1015,9 hPa 0,0 l/m 0 min 0 min 0 W/m 3,2 km/h (1 Bft) 97,87 %
30.06.2019 23:00 21,8 C 19,4 C 19,4 C 64 % 1015,9 hPa 0,0 l/m 0 min 0 min 0 W/m 3,2 km/h (1 Bft) 97,87 %
30.06.2019 23:02 21,8 C 19,4 C 19,4 C 64 % 1015,9 hPa 0,0 l/m 0 min 0 min 0 W/m 6,4 km/h (2 Bft) 95,65 %
30.06.2019 23:04 21,7 C 19,4 C 18,9 C 65 % 1015,8 hPa 0,0 l/m 0 min 0 min 0 W/m 3,2 km/h (1 Bft) 97,87 %
30.06.2019 23:06 21,7 C 19,4 C 18,9 C 64 % 1015,8 hPa 0,0 l/m 0 min 0 min 0 W/m 0,0 km/h (0 Bft) 95,74 %
30.06.2019 23:08 21,6 C 19,4 C 18,9 C 64 % 1015,9 hPa 0,0 l/m 0 min 0 min 0 W/m 3,2 km/h (1 Bft) 97,87 %
30.06.2019 23:10 21,6 C 19,4 C 18,9 C 64 % 1015,9 hPa 0,0 l/m 0 min 0 min 0 W/m 0,0 km/h (0 Bft) 95,74 %
30.06.2019 23:12 21,6 C 19,4 C 18,9 C 64 % 1015,9 hPa 0,0 l/m 0 min 0 min 0 W/m 3,2 km/h (1 Bft) 97,87 %
30.06.2019 23:14 21,5 C 19,4 C 18,9 C 63 % 1015,9 hPa 0,0 l/m 0 min 0 min 0 W/m 3,2 km/h (1 Bft) 97,83 %
30.06.2019 23:16 21,4 C 19,4 C 18,9 C 64 % 1016,0 hPa 0,0 l/m 0 min 0 min 0 W/m 3,2 km/h (1 Bft) 97,87 %
30.06.2019 23:18 21,4 C 18,9 C 18,9 C 64 % 1015,9 hPa 0,0 l/m 0 min 0 min 0 W/m 3,2 km/h (1 Bft) 97,87 %
30.06.2019 23:20 21,3 C 18,9 C 18,9 C 64 % 1015,9 hPa 0,0 l/m 0 min 0 min 0 W/m 3,2 km/h (1 Bft) 97,87 %
30.06.2019 23:22 21,3 C 18,9 C 18,9 C 65 % 1015,9 hPa 0,0 l/m 0 min 0 min 0 W/m 3,2 km/h (1 Bft) 97,87 %
30.06.2019 23:24 21,3 C 18,9 C 18,9 C 64 % 1015,9 hPa 0,0 l/m 0 min 0 min 0 W/m 3,2 km/h (1 Bft) 95,65 %
30.06.2019 23:26 21,2 C 18,9 C 18,9 C 65 % 1015,9 hPa 0,0 l/m 0 min 0 min 0 W/m 0,0 km/h (0 Bft) 97,87 %
30.06.2019 23:28 21,2 C 18,9 C 18,9 C 65 % 1015,8 hPa 0,0 l/m 0 min 0 min 0 W/m 0,0 km/h (0 Bft) 93,62 %
30.06.2019 23:30 21,1 C 18,9 C 18,9 C 65 % 1015,9 hPa 0,0 l/m 0 min 0 min 0 W/m 0,0 km/h (0 Bft) 95,74 %
30.06.2019 23:32 21,1 C 18,9 C 18,9 C 65 % 1015,9 hPa 0,0 l/m 0 min 0 min 0 W/m 0,0 km/h (0 Bft) 97,87 %
30.06.2019 23:34 21,1 C 18,9 C 18,9 C 64 % 1015,9 hPa 0,0 l/m 0 min 0 min 0 W/m 0,0 km/h (0 Bft) 95,74 %
30.06.2019 23:36 21,0 C 19,4 C 18,9 C 64 % 1015,9 hPa 0,0 l/m 0 min 0 min 0 W/m 0,0 km/h (0 Bft) 95,65 %
30.06.2019 23:38 21,0 C 19,4 C 18,9 C 64 % 1015,9 hPa 0,0 l/m 0 min 0 min 0 W/m 0,0 km/h (0 Bft) 97,87 %
30.06.2019 23:40 21,0 C 19,4 C 18,9 C 64 % 1015,9 hPa 0,0 l/m 0 min 0 min 0 W/m 0,0 km/h (0 Bft) 97,87 %
30.06.2019 23:42 20,9 C 19,4 C 18,9 C 65 % 1015,9 hPa 0,0 l/m 0 min 0 min 0 W/m 0,0 km/h (0 Bft) 95,74 %
30.06.2019 23:44 20,9 C 19,4 C 18,9 C 65 % 1015,9 hPa 0,0 l/m 0 min 0 min 0 W/m 0,0 km/h (0 Bft) 95,74 %
30.06.2019 23:46 20,9 C 19,4 C 18,9 C 65 % 1015,9 hPa 0,0 l/m 0 min 0 min 0 W/m 0,0 km/h (0 Bft) 93,62 %
30.06.2019 23:48 20,9 C 19,4 C 19,4 C 65 % 1015,9 hPa 0,0 l/m 0 min 0 min 0 W/m 0,0 km/h (0 Bft) 97,83 %
30.06.2019 23:50 20,8 C 19,4 C 18,9 C 65 % 1015,9 hPa 0,0 l/m 0 min 0 min 0 W/m 3,2 km/h (1 Bft) 97,87 %
30.06.2019 23:52 20,8 C 19,4 C 18,9 C 65 % 1015,9 hPa 0,0 l/m 0 min 0 min 0 W/m 3,2 km/h (1 Bft) 97,87 %
30.06.2019 23:54 20,8 C 19,4 C 18,9 C 65 % 1015,9 hPa 0,0 l/m 0 min 0 min 0 W/m 0,0 km/h (0 Bft) 97,87 %
30.06.2019 23:56 20,8 C 19,4 C 18,9 C 65 % 1015,9 hPa 0,0 l/m 0 min 0 min 0 W/m 3,2 km/h (1 Bft) 97,87 %
30.06.2019 23:58 20,8 C 19,4 C 18,9 C 65 % 1015,9 hPa 0,0 l/m 0 min 0 min 0 W/m 3,2 km/h (1 Bft) 97,87 %
_ Min-Zeit 05:52 05:06 04:38 00:00 05:28 - - - - 21:58 06:46
Minimum _ 20,1 C 18,9 C 18,9 C 48 % 1011,8 hPa - - - - 0,0 km/h (0 Bft) 85,11 %
_ Max-Zeit 13:02 11:04 12:04 06:08 22:10 00:00 12:08 00:00 13:28 19:30 00:22
Maximum _ 32,3 C 37,8 C 38,3 C 68 % 1016,1 hPa 0,0 l/m 4 min 0 min 1056 W/m 32,2 km/h
W (5 Bft)
100,00 %
Durchschnitt _ 26,3 C 26,8 C 26,4 C 59 % 1013,9 hPa #0,0 l/m #10:30 h #0 min. 427 W/m 10,7 km/h (2 Bft) 97,47 %
© 2019 W. Hausmann